Skip Navigation
Skip Navigation

Today's Weather Data

Time Wind Dir Wind Spd
mph
Wind Gust
mph
Hum In
%
Humidity
%
Temp In
F
Temp
F
Raw Barom
in
Tot Rain
in
UV Solar
W/sqm
DailyRain
in
HourRain
in
24HrRain
in
RainRate
in/hr
2/28/2015 12:00:59a 203 4 10 34 85 71.5 53.3 29.81 9.39 0.0 0 0.02 0.02 0.02 0.000
2/28/2015 12:01:59a 222 3 10 34 85 71.5 53.3 29.81 9.39 0.0 0 0.02 0.02 0.02 0.000
2/28/2015 12:03:02a 209 4 10 34 85 71.5 53.3 29.81 9.39 0.0 0 0.02 0.02 0.02 0.000
2/28/2015 12:04:02a 202 4 4 34 85 71.5 53.3 29.82 9.39 0.0 0 0.00 0.02 0.02 0.000
2/28/2015 12:05:03a 202 4 4 34 85 71.5 53.3 29.81 9.39 0.0 0 0.00 0.01 0.02 0.000
2/28/2015 12:06:03a 202 4 4 34 85 71.5 53.3 29.82 9.39 0.0 0 0.00 0.01 0.02 0.000
2/28/2015 12:07:03a 202 4 4 34 85 71.5 53.3 29.82 9.39 0.0 0 0.00 0.01 0.02 0.000
2/28/2015 12:08:03a 202 4 4 34 85 71.5 53.3 29.82 9.39 0.0 0 0.00 0.01 0.02 0.000
2/28/2015 12:09:09a 206 3 5 34 85 71.5 53.2 29.82 9.40 0.0 0 0.01 0.02 0.03 0.000
2/28/2015 12:10:09a 206 3 5 34 85 71.5 53.2 29.82 9.40 0.0 0 0.01 0.02 0.03 0.000
2/28/2015 12:11:09a 205 2 5 34 85 71.5 53.2 29.82 9.40 0.0 0 0.01 0.02 0.03 0.000
2/28/2015 12:12:09a 202 1 5 34 85 71.5 53.1 29.82 9.40 0.0 0 0.01 0.02 0.03 0.000
2/28/2015 12:13:09a 182 1 5 34 85 71.5 53.2 29.82 9.40 0.0 0 0.01 0.02 0.03 0.000
2/28/2015 12:14:10a 187 5 5 34 85 71.5 53.1 29.82 9.40 0.0 0 0.01 0.02 0.03 0.000
2/28/2015 12:15:10a 197 3 5 34 85 71.5 53.1 29.82 9.40 0.0 0 0.01 0.02 0.03 0.000
2/28/2015 12:16:10a 198 2 5 34 85 71.3 53.1 29.82 9.40 0.0 0 0.01 0.02 0.03 0.000
2/28/2015 12:17:13a 198 1 5 34 85 71.3 53.1 29.82 9.40 0.0 0 0.01 0.02 0.03 0.000
2/28/2015 12:18:13a 190 6 6 34 85 71.3 53.1 29.82 9.40 0.0 0 0.01 0.02 0.03 0.000
2/28/2015 12:19:16a 206 2 6 34 85 71.3 53.1 29.82 9.40 0.0 0 0.01 0.02 0.03 0.000
2/28/2015 12:20:16a 206 4 6 34 85 71.3 53.1 29.82 9.40 0.0 0 0.01 0.02 0.03 0.000
2/28/2015 12:21:17a 206 1 6 34 85 71.3 53.1 29.83 9.40 0.0 0 0.01 0.02 0.03 0.000
2/28/2015 12:22:17a 206 0 6 34 85 71.3 53.1 29.83 9.40 0.0 0 0.01 0.02 0.03 0.000
2/28/2015 12:23:17a 206 0 6 34 85 71.3 53.0 29.82 9.40 0.0 0 0.01 0.02 0.03 0.000
2/28/2015 12:24:17a 206 0 6 34 85 71.3 53.0 29.83 9.40 0.0 0 0.01 0.02 0.03 0.000
2/28/2015 12:25:17a 206 0 6 34 85 71.3 53.0 29.82 9.40 0.0 0 0.01 0.02 0.03 0.000
2/28/2015 12:26:17a 224 2 6 34 85 71.3 53.0 29.82 9.40 0.0 0 0.01 0.02 0.03 0.000
2/28/2015 12:27:17a 224 0 6 34 85 71.3 53.0 29.83 9.40 0.0 0 0.01 0.02 0.03 0.000
2/28/2015 12:28:18a 224 0 6 34 85 71.3 53.0 29.83 9.40 0.0 0 0.01 0.02 0.03 0.000
2/28/2015 12:29:18a 225 0 6 34 85 71.1 52.9 29.83 9.40 0.0 0 0.01 0.02 0.03 0.000
2/28/2015 12:30:18a 225 0 6 34 85 71.1 52.9 29.83 9.40 0.0 0 0.01 0.02 0.03 0.000
2/28/2015 12:31:18a 225 1 6 34 85 71.1 52.9 29.83 9.40 0.0 0 0.01 0.02 0.03 0.000
2/28/2015 12:32:18a 225 0 6 34 85 71.1 52.9 29.83 9.40 0.0 0 0.01 0.02 0.03 0.000
2/28/2015 12:33:18a 225 0 6 34 85 71.1 52.9 29.83 9.40 0.0 0 0.01 0.02 0.03 0.000
2/28/2015 12:34:18a 225 0 1 34 85 71.1 52.8 29.83 9.40 0.0 0 0.01 0.02 0.03 0.000
2/28/2015 12:35:18a 225 0 1 34 85 71.1 52.8 29.83 9.40 0.0 0 0.01 0.02 0.03 0.000
2/28/2015 12:36:18a 225 0 1 34 85 71.1 52.8 29.83 9.40 0.0 0 0.01 0.02 0.03 0.000
2/28/2015 12:37:24a 225 0 1 34 85 71.1 52.7 29.83 9.40 0.0 0 0.01 0.02 0.03 0.000
2/28/2015 12:38:24a 225 0 1 34 85 71.1 52.7 29.83 9.40 0.0 0 0.01 0.02 0.03 0.000
2/28/2015 12:39:24a 225 0 1 34 85 71.1 52.7 29.83 9.40 0.0 0 0.01 0.02 0.03 0.000
2/28/2015 12:40:24a 225 0 1 34 85 71.1 52.7 29.83 9.40 0.0 0 0.01 0.02 0.03 0.000
2/28/2015 12:41:31a 225 0 1 34 85 71.0 52.7 29.83 9.40 0.0 0 0.01 0.02 0.03 0.000
2/28/2015 12:42:31a 225 0 1 34 85 71.0 52.7 29.83 9.40 0.0 0 0.01 0.02 0.03 0.000
2/28/2015 12:43:31a 225 0 1 34 85 71.0 52.7 29.83 9.40 0.0 0 0.01 0.02 0.03 0.000
2/28/2015 12:44:32a 225 0 1 34 85 71.0 52.6 29.83 9.40 0.0 0 0.01 0.02 0.03 0.000
2/28/2015 12:45:32a 225 0 1 34 85 71.0 52.6 29.83 9.40 0.0 0 0.01 0.02 0.03 0.000
2/28/2015 12:46:32a 224 1 2 34 85 71.0 52.6 29.83 9.40 0.0 0 0.01 0.02 0.03 0.000
2/28/2015 12:47:32a 224 0 2 34 85 71.0 52.6 29.83 9.40 0.0 0 0.01 0.02 0.03 0.000
2/28/2015 12:48:32a 224 0 2 34 85 71.0 52.6 29.83 9.40 0.0 0 0.01 0.02 0.03 0.000
2/28/2015 12:49:32a 224 0 0 34 85 71.0 52.6 29.83 9.40 0.0 0 0.01 0.01 0.03 0.000
2/28/2015 12:50:32a 128 3 3 34 85 71.0 52.6 29.83 9.40 0.0 0 0.01 0.01 0.03 0.000
2/28/2015 12:51:32a 123 0 3 34 85 71.0 52.5 29.83 9.40 0.0 0 0.01 0.01 0.03 0.000
2/28/2015 12:52:32a 123 0 3 34 85 71.0 52.5 29.82 9.40 0.0 0 0.01 0.01 0.03 0.000
2/28/2015 12:53:32a 128 0 3 34 85 71.0 52.5 29.83 9.40 0.0 0 0.01 0.01 0.03 0.000
2/28/2015 12:54:32a 128 0 3 34 85 70.8 52.5 29.83 9.40 0.0 0 0.01 0.01 0.03 0.000
2/28/2015 12:55:32a 132 0 3 34 85 70.8 52.5 29.83 9.40 0.0 0 0.01 0.01 0.03 0.000
2/28/2015 12:56:33a 132 0 3 34 85 70.8 52.5 29.83 9.40 0.0 0 0.01 0.01 0.03 0.000
2/28/2015 12:57:33a 132 0 3 34 85 70.8 52.4 29.82 9.40 0.0 0 0.01 0.01 0.03 0.000
2/28/2015 12:58:33a 132 0 3 34 85 70.8 52.4 29.82 9.40 0.0 0 0.01 0.01 0.03 0.000
2/28/2015 12:59:33a 132 0 3 34 85 70.8 52.4 29.82 9.40 0.0 0 0.01 0.01 0.03 0.000
2/28/2015 1:00:33a 132 0 3 34 85 70.8 52.4 29.82 9.40 0.0 0 0.01 0.01 0.03 0.000
2/28/2015 1:01:33a 132 0 3 34 85 70.8 52.4 29.82 9.40 0.0 0 0.01 0.01 0.03 0.000
2/28/2015 1:02:33a 132 0 3 34 85 70.8 52.4 29.82 9.40 0.0 0 0.01 0.01 0.03 0.000
2/28/2015 1:03:33a 132 0 3 34 85 70.8 52.4 29.83 9.40 0.0 0 0.01 0.01 0.03 0.000
2/28/2015 1:04:33a 132 0 1 34 85 70.8 52.4 29.83 9.40 0.0 0 0.01 0.01 0.03 0.000
2/28/2015 1:05:33a 132 0 1 34 85 70.8 52.4 29.83 9.40 0.0 0 0.01 0.01 0.03 0.000
2/28/2015 1:06:37a 132 0 1 34 85 70.6 52.4 29.82 9.40 0.0 0 0.01 0.01 0.03 0.000
2/28/2015 1:07:40a 132 0 1 34 85 70.6 52.4 29.82 9.40 0.0 0 0.01 0.01 0.03 0.000
2/28/2015 1:08:40a 132 0 1 34 85 70.6 52.4 29.82 9.40 0.0 0 0.01 0.01 0.03 0.000
2/28/2015 1:09:40a 123 0 1 34 85 70.6 52.4 29.82 9.40 0.0 0 0.01 0.01 0.03 0.000
2/28/2015 1:10:40a 128 0 1 34 85 70.6 52.4 29.82 9.40 0.0 0 0.01 0.01 0.03 0.000
2/28/2015 1:11:40a 128 0 1 34 85 70.6 52.4 29.82 9.40 0.0 0 0.01 0.01 0.03 0.000
2/28/2015 1:12:40a 123 0 1 34 85 70.6 52.4 29.82 9.40 0.0 0 0.01 0.01 0.03 0.000
2/28/2015 1:13:43a 128 0 1 34 85 70.6 52.4 29.82 9.40 0.0 0 0.01 0.01 0.03 0.000
2/28/2015 1:14:46a 123 0 1 35 85 70.6 52.4 29.82 9.40 0.0 0 0.01 0.01 0.03 0.000
2/28/2015 1:15:46a 128 0 1 35 85 70.6 52.4 29.82 9.40 0.0 0 0.01 0.01 0.03 0.000
2/28/2015 1:16:46a 128 0 1 35 85 70.6 52.4 29.82 9.40 0.0 0 0.01 0.01 0.03 0.000
2/28/2015 1:17:46a 123 0 1 35 85 70.5 52.4 29.82 9.40 0.0 0 0.01 0.01 0.03 0.000
2/28/2015 1:18:46a 128 0 0 35 85 70.5 52.4 29.82 9.40 0.0 0 0.01 0.01 0.03 0.000
2/28/2015 1:19:47a 123 0 0 35 85 70.5 52.4 29.82 9.40 0.0 0 0.01 0.00 0.03 0.000
2/28/2015 1:20:50a 128 0 0 35 85 70.5 52.3 29.82 9.40 0.0 0 0.01 0.00 0.03 0.000
2/28/2015 1:21:50a 128 0 0 35 86 70.5 52.4 29.82 9.40 0.0 0 0.01 0.00 0.03 0.000
2/28/2015 1:22:50a 123 0 1 35 86 70.5 52.3 29.82 9.40 0.0 0 0.01 0.00 0.03 0.000
2/28/2015 1:23:50a 152 0 3 35 86 70.5 52.3 29.82 9.40 0.0 0 0.01 0.00 0.03 0.000
2/28/2015 1:24:50a 215 3 4 35 86 70.5 52.4 29.82 9.40 0.0 0 0.01 0.00 0.03 0.000
2/28/2015 1:25:50a 250 4 7 35 86 70.5 52.4 29.82 9.40 0.0 0 0.01 0.00 0.03 0.000
2/28/2015 1:26:50a 184 1 7 35 86 70.5 52.4 29.82 9.40 0.0 0 0.01 0.00 0.03 0.000
2/28/2015 1:27:50a 185 3 7 35 85 70.5 52.4 29.82 9.40 0.0 0 0.01 0.00 0.03 0.000
2/28/2015 1:28:50a 201 6 7 35 86 70.5 52.3 29.82 9.40 0.0 0 0.01 0.00 0.03 0.000
2/28/2015 1:29:50a 199 5 7 35 85 70.5 52.3 29.82 9.40 0.0 0 0.01 0.00 0.03 0.000
2/28/2015 1:30:51a 207 3 7 35 85 70.5 52.3 29.82 9.40 0.0 0 0.01 0.00 0.03 0.000
2/28/2015 1:31:51a 211 2 7 35 85 70.5 52.3 29.82 9.40 0.0 0 0.01 0.00 0.03 0.000
2/28/2015 1:32:51a 211 0 7 35 85 70.3 52.3 29.82 9.40 0.0 0 0.01 0.00 0.03 0.000
2/28/2015 1:33:51a 186 3 3 35 85 70.3 52.3 29.82 9.40 0.0 0 0.01 0.00 0.03 0.000
2/28/2015 1:34:51a 186 1 3 35 85 70.3 52.3 29.82 9.40 0.0 0 0.01 0.00 0.03 0.000
2/28/2015 1:35:54a 195 3 4 35 85 70.3 52.3 29.82 9.40 0.0 0 0.01 0.00 0.03 0.000
2/28/2015 1:36:54a 179 4 7 35 85 70.3 52.3 29.82 9.40 0.0 0 0.01 0.00 0.03 0.000
2/28/2015 1:37:54a 224 3 7 35 85 70.3 52.3 29.82 9.40 0.0 0 0.01 0.00 0.03 0.000
2/28/2015 1:38:54a 241 0 7 35 85 70.3 52.3 29.82 9.40 0.0 0 0.01 0.00 0.03 0.000
2/28/2015 1:39:55a 241 0 7 35 85 70.3 52.2 29.82 9.40 0.0 0 0.01 0.00 0.03 0.000
2/28/2015 1:40:55a 241 0 7 35 85 70.3 52.3 29.83 9.40 0.0 0 0.01 0.00 0.03 0.000
2/28/2015 1:41:55a 207 2 7 35 85 70.3 52.2 29.82 9.40 0.0 0 0.01 0.00 0.03 0.000
2/28/2015 1:42:55a 259 3 7 35 85 70.3 52.2 29.83 9.40 0.0 0 0.01 0.00 0.03 0.000
2/28/2015 1:43:55a 221 2 7 35 85 70.3 52.2 29.82 9.40 0.0 0 0.01 0.00 0.03 0.000
2/28/2015 1:44:55a 217 2 7 35 85 70.3 52.2 29.82 9.40 0.0 0 0.01 0.00 0.03 0.000
2/28/2015 1:45:55a 233 1 7 35 85 70.3 52.2 29.82 9.40 0.0 0 0.01 0.00 0.03 0.000
2/28/2015 1:46:58a 215 2 7 35 85 70.1 52.3 29.82 9.40 0.0 0 0.01 0.00 0.03 0.000
2/28/2015 1:47:58a 224 2 7 35 85 70.1 52.3 29.82 9.40 0.0 0 0.01 0.00 0.03 0.000
2/28/2015 1:49:05a 255 2 7 35 85 70.1 52.2 29.82 9.40 0.0 0 0.01 0.00 0.03 0.000
2/28/2015 1:50:05a 255 1 7 35 85 70.1 52.2 29.82 9.40 0.0 0 0.01 0.00 0.03 0.000
2/28/2015 1:51:05a 253 1 7 35 85 70.1 52.2 29.83 9.40 0.0 0 0.01 0.00 0.03 0.000
2/28/2015 1:52:05a 258 2 7 35 85 70.1 52.2 29.83 9.40 0.0 0 0.01 0.00 0.03 0.000
2/28/2015 1:53:05a 259 1 7 35 85 70.1 52.2 29.83 9.40 0.0 0 0.01 0.00 0.03 0.000
2/28/2015 1:54:05a 214 4 7 35 85 70.1 52.1 29.83 9.40 0.0 0 0.01 0.00 0.03 0.000
2/28/2015 1:55:05a 197 2 7 35 85 70.1 52.1 29.83 9.40 0.0 0 0.01 0.00 0.03 0.000
2/28/2015 1:56:08a 199 1 7 35 85 70.1 52.1 29.83 9.40 0.0 0 0.01 0.00 0.03 0.000
2/28/2015 1:57:08a 200 0 7 35 85 70.1 52.0 29.83 9.40 0.0 0 0.01 0.00 0.03 0.000
2/28/2015 1:58:08a 200 0 7 35 85 70.1 52.0 29.83 9.40 0.0 0 0.01 0.00 0.03 0.000
2/28/2015 1:59:08a 200 0 7 35 85 70.1 52.0 29.83 9.40 0.0 0 0.01 0.00 0.03 0.000
2/28/2015 2:00:08a 200 0 7 35 85 70.1 52.0 29.83 9.40 0.0 0 0.01 0.00 0.03 0.000
2/28/2015 2:01:15a 248 0 7 35 85 69.9 52.0 29.83 9.40 0.0 0 0.01 0.00 0.03 0.000
2/28/2015 2:02:15a 263 1 7 35 85 69.9 51.9 29.83 9.40 0.0 0 0.01 0.00 0.03 0.000
2/28/2015 2:03:15a 324 0 7 35 85 69.9 51.9 29.83 9.40 0.0 0 0.01 0.00 0.03 0.000
2/28/2015 2:04:15a 324 0 1 35 85 69.9 51.9 29.83 9.40 0.0 0 0.01 0.00 0.03 0.000
2/28/2015 2:05:15a 323 0 1 35 85 69.9 51.8 29.83 9.40 0.0 0 0.01 0.00 0.03 0.000
2/28/2015 2:06:15a 323 0 1 35 85 69.9 51.8 29.83 9.40 0.0 0 0.01 0.00 0.03 0.000
2/28/2015 2:07:15a 323 2 3 35 85 69.9 51.8 29.83 9.40 0.0 0 0.01 0.00 0.03 0.000
2/28/2015 2:08:18a 323 0 3 35 85 69.9 51.8 29.83 9.40 0.0 0 0.01 0.00 0.03 0.000
2/28/2015 2:09:18a 323 0 3 35 85 69.9 51.8 29.83 9.40 0.0 0 0.01 0.00 0.03 0.000
2/28/2015 2:10:25a 323 0 3 35 85 69.9 51.8 29.83 9.40 0.0 0 0.01 0.00 0.03 0.000
2/28/2015 2:11:25a 323 0 3 35 85 69.9 51.7 29.83 9.40 0.0 0 0.01 0.00 0.03 0.000
2/28/2015 2:12:25a 324 1 3 35 85 69.9 51.7 29.83 9.40 0.0 0 0.01 0.00 0.03 0.000
2/28/2015 2:13:25a 324 1 3 35 85 69.9 51.7 29.83 9.40 0.0 0 0.01 0.00 0.03 0.000
2/28/2015 2:14:25a 323 2 3 35 85 69.9 51.7 29.83 9.40 0.0 0 0.01 0.00 0.03 0.000
2/28/2015 2:15:25a 337 1 5 35 85 69.9 51.7 29.83 9.40 0.0 0 0.01 0.00 0.03 0.000
2/28/2015 2:16:25a 324 5 6 35 85 69.8 51.7 29.83 9.40 0.0 0 0.01 0.00 0.03 0.000
2/28/2015 2:17:28a 329 0 6 35 85 69.8 51.6 29.83 9.40 0.0 0 0.01 0.00 0.03 0.000
2/28/2015 2:18:28a 329 0 6 35 85 69.8 51.6 29.83 9.40 0.0 0 0.01 0.00 0.03 0.000
2/28/2015 2:19:28a 329 0 1 35 85 69.8 51.6 29.83 9.40 0.0 0 0.01 0.00 0.03 0.000
2/28/2015 2:20:28a 329 0 1 35 85 69.8 51.6 29.83 9.40 0.0 0 0.01 0.00 0.03 0.000
2/28/2015 2:21:28a 329 1 2 35 85 69.8 51.5 29.83 9.40 0.0 0 0.01 0.00 0.03 0.000
2/28/2015 2:22:29a 327 4 5 35 85 69.8 51.5 29.82 9.40 0.0 0 0.01 0.00 0.03 0.000
2/28/2015 2:23:29a 337 2 5 35 85 69.8 51.5 29.82 9.40 0.0 0 0.01 0.00 0.03 0.000
2/28/2015 2:24:29a 337 1 5 35 85 69.8 51.5 29.82 9.40 0.0 0 0.01 0.00 0.03 0.000
2/28/2015 2:25:29a 338 1 5 35 85 69.8 51.5 29.82 9.40 0.0 0 0.01 0.00 0.03 0.000
2/28/2015 2:26:29a 357 3 5 35 85 69.8 51.5 29.82 9.40 0.0 0 0.01 0.00 0.03 0.000
2/28/2015 2:27:29a 358 0 5 35 85 69.8 51.4 29.82 9.40 0.0 0 0.01 0.00 0.03 0.000
2/28/2015 2:28:32a 358 1 5 35 85 69.8 51.4 29.82 9.40 0.0 0 0.01 0.00 0.03 0.000
2/28/2015 2:29:32a 358 1 5 35 85 69.8 51.4 29.82 9.40 0.0 0 0.01 0.00 0.03 0.000
2/28/2015 2:30:32a 357 3 5 35 85 69.6 51.3 29.82 9.40 0.0 0 0.01 0.00 0.03 0.000
2/28/2015 2:31:32a 307 1 5 35 85 69.6 51.3 29.82 9.40 0.0 0 0.01 0.00 0.03 0.000
2/28/2015 2:32:32a 307 1 5 35 85 69.6 51.3 29.82 9.40 0.0 0 0.01 0.00 0.03 0.000
2/28/2015 2:33:32a 307 0 5 35 85 69.6 51.3 29.82 9.40 0.0 0 0.01 0.00 0.03 0.000
2/28/2015 2:34:32a 307 0 0 35 85 69.6 51.2 29.82 9.40 0.0 0 0.01 0.00 0.03 0.000
2/28/2015 2:35:33a 307 0 0 35 85 69.6 51.2 29.82 9.40 0.0 0 0.01 0.00 0.03 0.000
2/28/2015 2:36:33a 307 0 0 35 85 69.6 51.2 29.82 9.40 0.0 0 0.01 0.00 0.03 0.000
2/28/2015 2:37:33a 307 0 0 35 85 69.6 51.2 29.82 9.40 0.0 0 0.01 0.00 0.03 0.000
2/28/2015 2:38:33a 307 0 1 35 85 69.6 51.1 29.82 9.40 0.0 0 0.01 0.00 0.03 0.000
2/28/2015 2:39:33a 307 0 1 35 85 69.6 51.1 29.82 9.40 0.0 0 0.01 0.00 0.03 0.000
2/28/2015 2:40:33a 307 0 1 35 85 69.6 51.1 29.82 9.40 0.0 0 0.01 0.00 0.03 0.000
2/28/2015 2:41:33a 307 0 1 35 85 69.6 51.1 29.82 9.40 0.0 0 0.01 0.00 0.03 0.000
2/28/2015 2:42:33a 307 0 1 35 85 69.6 51.1 29.82 9.40 0.0 0 0.01 0.00 0.03 0.000
2/28/2015 2:43:33a 307 0 1 35 85 69.6 51.1 29.82 9.40 0.0 0 0.01 0.00 0.03 0.000
2/28/2015 2:44:33a 307 0 1 35 85 69.4 51.0 29.82 9.40 0.0 0 0.01 0.00 0.03 0.000
2/28/2015 2:45:33a 307 0 1 35 85 69.4 51.0 29.82 9.40 0.0 0 0.01 0.00 0.03 0.000
2/28/2015 2:46:33a 307 0 1 35 85 69.4 51.0 29.82 9.40 0.0 0 0.01 0.00 0.03 0.000
2/28/2015 2:47:39a 307 0 1 35 85 69.4 51.0 29.82 9.40 0.0 0 0.01 0.00 0.03 0.000
2/28/2015 2:48:45a 307 0 0 35 85 69.4 51.0 29.82 9.40 0.0 0 0.01 0.00 0.03 0.000
2/28/2015 2:49:49a 307 0 0 35 85 69.4 51.0 29.82 9.40 0.0 0 0.01 0.00 0.03 0.000
2/28/2015 2:50:49a 307 0 0 35 85 69.4 50.9 29.82 9.40 0.0 0 0.01 0.00 0.03 0.000
2/28/2015 2:51:55a 307 0 0 35 85 69.4 50.9 29.82 9.40 0.0 0 0.01 0.00 0.03 0.000
2/28/2015 2:52:55a 307 0 1 35 85 69.4 50.9 29.82 9.40 0.0 0 0.01 0.00 0.03 0.000
2/28/2015 2:53:55a 307 0 1 35 85 69.4 50.9 29.82 9.40 0.0 0 0.01 0.00 0.03 0.000
2/28/2015 2:54:55a 307 0 1 35 85 69.4 50.9 29.82 9.40 0.0 0 0.01 0.00 0.03 0.000
2/28/2015 2:55:55a 307 0 1 35 85 69.4 50.9 29.82 9.40 0.0 0 0.01 0.00 0.03 0.000
2/28/2015 2:56:58a 307 1 1 35 85 69.3 50.8 29.82 9.40 0.0 0 0.01 0.00 0.03 0.000
2/28/2015 2:57:58a 307 0 2 35 85 69.3 50.8 29.82 9.40 0.0 0 0.01 0.00 0.03 0.000
2/28/2015 2:58:58a 307 0 2 35 85 69.3 50.8 29.82 9.40 0.0 0 0.01 0.00 0.03 0.000
2/28/2015 2:59:58a 307 0 2 35 85 69.3 50.7 29.82 9.40 0.0 0 0.01 0.00 0.03 0.000
2/28/2015 3:00:59a 51 2 2 35 85 69.3 50.7 29.82 9.40 0.0 0 0.01 0.00 0.03 0.000
2/28/2015 3:01:59a 51 0 2 35 85 69.3 50.7 29.82 9.40 0.0 0 0.01 0.00 0.03 0.000
2/28/2015 3:02:59a 51 0 2 35 85 69.3 50.7 29.82 9.40 0.0 0 0.01 0.00 0.03 0.000
2/28/2015 3:03:59a 50 0 0 35 85 69.3 50.7 29.82 9.40 0.0 0 0.01 0.00 0.03 0.000
2/28/2015 3:06:00a 50 0 1 35 85 69.3 50.7 29.82 9.40 0.0 0 0.01 0.00 0.03 0.000
2/28/2015 3:07:00a 51 0 1 35 85 69.3 50.7 29.82 9.40 0.0 0 0.01 0.00 0.03 0.000
2/28/2015 3:08:00a 51 0 1 35 85 69.3 50.7 29.82 9.40 0.0 0 0.01 0.00 0.03 0.000
2/28/2015 3:09:00a 51 0 1 35 85 69.1 50.7 29.82 9.40 0.0 0 0.01 0.00 0.03 0.000
2/28/2015 3:10:00a 51 0 1 35 85 69.1 50.7 29.82 9.40 0.0 0 0.01 0.00 0.03 0.000
2/28/2015 3:11:00a 51 0 1 35 85 69.1 50.7 29.82 9.40 0.0 0 0.01 0.00 0.03 0.000
2/28/2015 3:12:00a 50 0 1 35 85 69.1 50.7 29.82 9.40 0.0 0 0.01 0.00 0.03 0.000
2/28/2015 3:13:00a 51 2 2 35 86 69.1 50.7 29.82 9.40 0.0 0 0.01 0.00 0.03 0.000
2/28/2015 3:14:01a 51 0 2 35 86 69.1 50.7 29.82 9.40 0.0 0 0.01 0.00 0.03 0.000
2/28/2015 3:16:04a 51 0 2 35 86 69.1 50.7 29.82 9.40 0.0 0 0.01 0.00 0.03 0.000
2/28/2015 3:17:04a 51 0 2 35 86 69.1 50.7 29.82 9.40 0.0 0 0.01 0.00 0.03 0.000
2/28/2015 3:18:04a 51 0 2 35 86 69.1 50.7 29.82 9.40 0.0 0 0.01 0.00 0.03 0.000
2/28/2015 3:19:04a 51 0 0 35 86 69.1 50.7 29.82 9.40 0.0 0 0.01 0.00 0.03 0.000
2/28/2015 3:20:07a 51 1 1 35 86 69.1 50.7 29.82 9.40 0.0 0 0.01 0.00 0.03 0.000
2/28/2015 3:21:07a 55 0 2 35 86 69.1 50.7 29.82 9.40 0.0 0 0.01 0.00 0.03 0.000
2/28/2015 3:22:07a 55 0 2 35 86 68.9 50.7 29.82 9.40 0.0 0 0.01 0.00 0.03 0.000
2/28/2015 3:23:07a 55 0 2 35 86 68.9 50.7 29.82 9.40 0.0 0 0.01 0.00 0.03 0.000
2/28/2015 3:24:07a 54 0 2 35 86 68.9 50.7 29.82 9.40 0.0 0 0.01 0.00 0.03 0.000
2/28/2015 3:25:07a 54 0 2 35 86 68.9 50.7 29.82 9.40 0.0 0 0.01 0.00 0.03 0.000
2/28/2015 3:26:07a 55 0 2 35 86 68.9 50.7 29.82 9.40 0.0 0 0.01 0.00 0.03 0.000
2/28/2015 3:27:08a 55 0 2 35 86 68.9 50.7 29.82 9.40 0.0 0 0.01 0.00 0.03 0.000
2/28/2015 3:28:08a 55 0 2 35 86 68.9 50.7 29.82 9.40 0.0 0 0.01 0.00 0.03 0.000
2/28/2015 3:29:08a 55 0 2 35 86 68.9 50.7 29.82 9.40 0.0 0 0.01 0.00 0.03 0.000
2/28/2015 3:30:08a 55 0 2 35 86 68.9 50.7 29.82 9.40 0.0 0 0.01 0.00 0.03 0.000
2/28/2015 3:31:08a 54 0 2 35 86 68.9 50.7 29.83 9.40 0.0 0 0.01 0.00 0.03 0.000
2/28/2015 3:32:08a 55 0 2 35 86 68.9 50.7 29.83 9.40 0.0 0 0.01 0.00 0.03 0.000
2/28/2015 3:33:08a 54 0 2 35 86 68.9 50.7 29.83 9.40 0.0 0 0.01 0.00 0.03 0.000
2/28/2015 3:34:08a 55 3 3 35 86 68.8 50.7 29.82 9.40 0.0 0 0.01 0.00 0.03 0.000
2/28/2015 3:35:11a 55 1 3 35 86 68.8 50.7 29.82 9.40 0.0 0 0.01 0.00 0.03 0.000
2/28/2015 3:36:11a 55 1 3 35 86 68.8 50.7 29.83 9.40 0.0 0 0.01 0.00 0.03 0.000
2/28/2015 3:37:11a 55 2 3 35 86 68.8 50.7 29.83 9.40 0.0 0 0.01 0.00 0.03 0.000
2/28/2015 3:38:11a 55 0 3 35 86 68.8 50.7 29.82 9.40 0.0 0 0.01 0.00 0.03 0.000
2/28/2015 3:39:11a 55 3 3 35 86 68.8 50.7 29.82 9.40 0.0 0 0.01 0.00 0.03 0.000
2/28/2015 3:40:11a 55 2 3 35 86 68.8 50.7 29.82 9.40 0.0 0 0.01 0.00 0.03 0.000
2/28/2015 3:41:12a 55 1 3 35 86 68.8 50.7 29.82 9.40 0.0 0 0.01 0.00 0.03 0.000
2/28/2015 3:42:12a 55 0 3 35 86 68.8 50.7 29.82 9.40 0.0 0 0.01 0.00 0.03 0.000
2/28/2015 3:43:12a 55 0 3 35 86 68.8 50.7 29.82 9.40 0.0 0 0.01 0.00 0.03 0.000
2/28/2015 3:44:12a 55 0 3 35 86 68.8 50.7 29.82 9.40 0.0 0 0.01 0.00 0.03 0.000
2/28/2015 3:45:12a 55 0 3 35 86 68.8 50.7 29.82 9.40 0.0 0 0.01 0.00 0.03 0.000
2/28/2015 3:46:12a 55 0 3 35 86 68.8 50.7 29.82 9.40 0.0 0 0.01 0.00 0.03 0.000
2/28/2015 3:47:12a 55 0 3 35 86 68.6 50.7 29.82 9.40 0.0 0 0.01 0.00 0.03 0.000
2/28/2015 3:48:15a 55 0 3 35 86 68.6 50.7 29.82 9.40 0.0 0 0.01 0.00 0.03 0.000
2/28/2015 3:49:15a 55 0 0 35 86 68.6 50.7 29.82 9.40 0.0 0 0.01 0.00 0.03 0.000
2/28/2015 3:50:15a 55 0 0 35 86 68.6 50.7 29.82 9.40 0.0 0 0.01 0.00 0.03 0.000
2/28/2015 3:51:15a 55 0 1 35 86 68.6 50.7 29.82 9.40 0.0 0 0.01 0.00 0.03 0.000
2/28/2015 3:52:16a 55 2 3 35 86 68.6 50.7 29.83 9.40 0.0 0 0.01 0.00 0.03 0.000
2/28/2015 3:53:16a 55 0 3 35 86 68.6 50.7 29.82 9.40 0.0 0 0.01 0.00 0.03 0.000
2/28/2015 3:54:22a 55 0 3 35 86 68.6 50.7 29.83 9.40 0.0 0 0.01 0.00 0.03 0.000
2/28/2015 3:55:22a 55 0 3 35 86 68.6 50.7 29.83 9.40 0.0 0 0.01 0.00 0.03 0.000
2/28/2015 3:56:22a 55 0 3 35 86 68.6 50.7 29.83 9.40 0.0 0 0.01 0.00 0.03 0.000
2/28/2015 3:57:22a 55 0 3 35 86 68.6 50.7 29.83 9.40 0.0 0 0.01 0.00 0.03 0.000
2/28/2015 3:58:22a 55 2 3 35 86 68.6 50.7 29.83 9.40 0.0 0 0.01 0.00 0.03 0.000
2/28/2015 3:59:25a 55 0 3 35 86 68.6 50.7 29.83 9.40 0.0 0 0.01 0.00 0.03 0.000
2/28/2015 4:00:25a 55 0 3 35 86 68.4 50.7 29.83 9.40 0.0 0 0.01 0.00 0.03 0.000
2/28/2015 4:01:26a 55 1 3 35 86 68.4 50.7 29.83 9.40 0.0 0 0.01 0.00 0.03 0.000
2/28/2015 4:02:29a 55 0 3 35 86 68.4 50.7 29.83 9.40 0.0 0 0.01 0.00 0.03 0.000
2/28/2015 4:03:29a 55 0 3 35 86 68.4 50.7 29.83 9.40 0.0 0 0.01 0.00 0.03 0.000
2/28/2015 4:04:29a 55 0 1 35 86 68.4 50.7 29.83 9.40 0.0 0 0.01 0.00 0.03 0.000
2/28/2015 4:05:29a 55 1 1 35 86 68.4 50.7 29.83 9.40 0.0 0 0.01 0.00 0.03 0.000
2/28/2015 4:06:29a 55 0 2 35 86 68.4 50.7 29.83 9.40 0.0 0 0.01 0.00 0.03 0.000
2/28/2015 4:07:32a 55 1 2 35 86 68.4 50.7 29.83 9.40 0.0 0 0.01 0.00 0.03 0.000
2/28/2015 4:08:32a 55 0 2 35 86 68.4 50.7 29.83 9.40 0.0 0 0.01 0.00 0.03 0.000
2/28/2015 4:09:32a 171 3 4 35 86 68.4 50.7 29.83 9.40 0.0 0 0.01 0.00 0.03 0.000
2/28/2015 4:10:32a 172 0 4 35 86 68.4 50.7 29.83 9.40 0.0 0 0.01 0.00 0.03 0.000
2/28/2015 4:11:32a 172 0 4 35 86 68.4 50.7 29.83 9.40 0.0 0 0.01 0.00 0.03 0.000
2/28/2015 4:12:38a 172 0 4 35 86 68.4 50.7 29.83 9.40 0.0 0 0.01 0.00 0.03 0.000
2/28/2015 4:13:39a 174 2 4 35 86 68.4 50.7 29.83 9.40 0.0 0 0.01 0.00 0.03 0.000
2/28/2015 4:14:42a 174 2 4 35 86 68.4 50.7 29.83 9.40 0.0 0 0.01 0.00 0.03 0.000
2/28/2015 4:15:42a 174 0 4 35 86 68.4 50.7 29.83 9.40 0.0 0 0.01 0.00 0.03 0.000
2/28/2015 4:16:42a 174 0 4 35 86 68.3 50.7 29.83 9.40 0.0 0 0.01 0.00 0.03 0.000
2/28/2015 4:17:42a 174 1 4 35 86 68.3 50.7 29.83 9.40 0.0 0 0.01 0.00 0.03 0.000
2/28/2015 4:18:42a 174 0 1 35 86 68.3 50.6 29.83 9.40 0.0 0 0.01 0.00 0.03 0.000
2/28/2015 4:19:45a 183 3 4 35 86 68.3 50.6 29.83 9.40 0.0 0 0.01 0.00 0.03 0.000
2/28/2015 4:20:45a 224 2 4 35 86 68.3 50.6 29.83 9.40 0.0 0 0.01 0.00 0.03 0.000
2/28/2015 4:21:48a 224 0 4 35 86 68.3 50.6 29.83 9.40 0.0 0 0.01 0.00 0.03 0.000
2/28/2015 4:22:48a 224 0 4 35 86 68.3 50.6 29.83 9.40 0.0 0 0.01 0.00 0.03 0.000
2/28/2015 4:23:49a 224 0 4 35 86 68.3 50.6 29.83 9.40 0.0 0 0.01 0.00 0.03 0.000
2/28/2015 4:24:49a 224 2 4 35 86 68.3 50.6 29.83 9.40 0.0 0 0.01 0.00 0.03 0.000
2/28/2015 4:25:49a 224 2 4 35 86 68.3 50.6 29.83 9.40 0.0 0 0.01 0.00 0.03 0.000
2/28/2015 4:26:49a 224 0 4 35 86 68.3 50.6 29.83 9.40 0.0 0 0.01 0.00 0.03 0.000
2/28/2015 4:27:49a 224 0 4 35 86 68.3 50.5 29.83 9.40 0.0 0 0.01 0.00 0.03 0.000
2/28/2015 4:28:49a 224 0 4 35 86 68.3 50.5 29.83 9.40 0.0 0 0.01 0.00 0.03 0.000
2/28/2015 4:29:49a 224 0 4 35 86 68.3 50.5 29.83 9.40 0.0 0 0.01 0.00 0.03 0.000
2/28/2015 4:30:49a 224 0 4 35 86 68.3 50.5 29.83 9.40 0.0 0 0.01 0.00 0.03 0.000
2/28/2015 4:31:49a 224 0 4 35 86 68.1 50.5 29.83 9.40 0.0 0 0.01 0.00 0.03 0.000
2/28/2015 4:32:49a 224 0 4 35 86 68.1 50.5 29.83 9.40 0.0 0 0.01 0.00 0.03 0.000
2/28/2015 4:33:49a 224 0 0 35 86 68.1 50.4 29.83 9.40 0.0 0 0.01 0.00 0.03 0.000
2/28/2015 4:34:49a 211 1 2 35 86 68.1 50.4 29.83 9.40 0.0 0 0.01 0.00 0.03 0.000
2/28/2015 4:35:49a 211 2 2 35 86 68.1 50.4 29.84 9.40 0.0 0 0.01 0.00 0.03 0.000
2/28/2015 4:36:49a 211 2 2 35 86 68.1 50.4 29.84 9.40 0.0 0 0.01 0.00 0.03 0.000
2/28/2015 4:37:50a 211 0 2 35 86 68.1 50.4 29.84 9.40 0.0 0 0.01 0.00 0.03 0.000
2/28/2015 4:38:50a 211 0 2 35 86 68.1 50.4 29.84 9.40 0.0 0 0.01 0.00 0.03 0.000
2/28/2015 4:39:50a 211 0 2 35 86 68.1 50.4 29.84 9.40 0.0 0 0.01 0.00 0.03 0.000
2/28/2015 4:40:50a 211 0 2 35 86 68.1 50.4 29.84 9.40 0.0 0 0.01 0.00 0.03 0.000
2/28/2015 4:41:50a 211 0 2 35 86 68.1 50.3 29.84 9.40 0.0 0 0.01 0.00 0.03 0.000
2/28/2015 4:42:50a 211 0 2 35 86 68.1 50.3 29.84 9.40 0.0 0 0.01 0.00 0.03 0.000
2/28/2015 4:43:50a 211 2 3 35 86 68.1 50.3 29.84 9.40 0.0 0 0.01 0.00 0.03 0.000
2/28/2015 4:44:50a 211 0 3 35 86 68.1 50.3 29.84 9.40 0.0 0 0.01 0.00 0.03 0.000
2/28/2015 4:45:50a 211 1 3 35 86 67.9 50.3 29.84 9.40 0.0 0 0.01 0.00 0.03 0.000
2/28/2015 4:46:51a 211 2 3 35 86 67.9 50.3 29.84 9.40 0.0 0 0.01 0.00 0.03 0.000
2/28/2015 4:47:51a 206 1 4 35 86 67.9 50.3 29.84 9.40 0.0 0 0.01 0.00 0.03 0.000
2/28/2015 4:48:51a 205 1 1 35 86 67.9 50.2 29.84 9.40 0.0 0 0.01 0.00 0.03 0.000
2/28/2015 4:49:51a 188 3 3 35 86 67.9 50.2 29.84 9.40 0.0 0 0.01 0.00 0.03 0.000
2/28/2015 4:50:51a 188 1 3 35 86 67.9 50.2 29.84 9.40 0.0 0 0.01 0.00 0.03 0.000
2/28/2015 4:51:51a 184 2 3 35 86 67.9 50.2 29.84 9.40 0.0 0 0.01 0.00 0.03 0.000
2/28/2015 4:52:51a 184 0 3 35 86 67.9 50.2 29.84 9.40 0.0 0 0.01 0.00 0.03 0.000
2/28/2015 4:53:51a 188 2 3 35 86 67.9 50.2 29.84 9.40 0.0 0 0.01 0.00 0.03 0.000
2/28/2015 4:54:52a 188 0 3 35 86 67.9 50.1 29.84 9.40 0.0 0 0.01 0.00 0.03 0.000
2/28/2015 4:55:52a 188 0 3 35 86 67.9 50.1 29.84 9.40 0.0 0 0.01 0.00 0.03 0.000
2/28/2015 4:56:52a 188 2 3 35 86 67.9 50.1 29.84 9.40 0.0 0 0.01 0.00 0.03 0.000
2/28/2015 4:57:52a 187 1 3 35 86 67.9 50.1 29.84 9.40 0.0 0 0.01 0.00 0.03 0.000
2/28/2015 4:58:55a 187 1 3 35 86 67.8 50.1 29.84 9.40 0.0 0 0.01 0.00 0.03 0.000
2/28/2015 4:59:55a 187 0 3 35 86 67.8 50.0 29.85 9.40 0.0 0 0.01 0.00 0.03 0.000
2/28/2015 5:00:55a 187 0 3 35 86 67.8 50.0 29.85 9.40 0.0 0 0.01 0.00 0.03 0.000
2/28/2015 5:01:55a 187 0 3 35 86 67.8 50.0 29.85 9.40 0.0 0 0.01 0.00 0.03 0.000
2/28/2015 5:02:55a 187 0 3 35 86 67.8 50.0 29.85 9.40 0.0 0 0.01 0.00 0.03 0.000
2/28/2015 5:03:55a 187 0 0 35 86 67.8 50.0 29.85 9.40 0.0 0 0.01 0.00 0.03 0.000
2/28/2015 5:04:55a 187 0 0 35 86 67.8 50.0 29.84 9.40 0.0 0 0.01 0.00 0.03 0.000
2/28/2015 5:05:55a 187 0 0 35 86 67.8 50.0 29.85 9.40 0.0 0 0.01 0.00 0.03 0.000
2/28/2015 5:06:55a 187 0 0 35 86 67.8 50.0 29.85 9.40 0.0 0 0.01 0.00 0.03 0.000
2/28/2015 5:07:56a 187 0 0 35 86 67.8 50.0 29.85 9.40 0.0 0 0.01 0.00 0.03 0.000
2/28/2015 5:08:56a 187 0 0 35 86 67.8 49.9 29.85 9.40 0.0 0 0.01 0.00 0.03 0.000
2/28/2015 5:09:56a 187 1 3 35 86 67.8 49.9 29.85 9.40 0.0 0 0.01 0.00 0.03 0.000
2/28/2015 5:10:56a 185 0 3 35 86 67.8 49.9 29.85 9.40 0.0 0 0.01 0.00 0.03 0.000
2/28/2015 5:11:56a 184 0 3 35 86 67.6 49.9 29.85 9.40 0.0 0 0.01 0.00 0.03 0.000
2/28/2015 5:12:59a 184 0 3 35 86 67.6 49.9 29.85 9.40 0.0 0 0.01 0.00 0.03 0.000
2/28/2015 5:13:59a 185 0 3 35 86 67.6 49.9 29.85 9.40 0.0 0 0.01 0.00 0.03 0.000
2/28/2015 5:14:59a 184 1 3 35 86 67.6 49.9 29.85 9.40 0.0 0 0.01 0.00 0.03 0.000
2/28/2015 5:15:59a 184 0 3 35 86 67.6 49.9 29.85 9.40 0.0 0 0.01 0.00 0.03 0.000
2/28/2015 5:16:59a 185 0 3 35 86 67.6 49.8 29.85 9.40 0.0 0 0.01 0.00 0.03 0.000
2/28/2015 5:17:59a 185 0 3 35 86 67.6 49.8 29.85 9.40 0.0 0 0.01 0.00 0.03 0.000
2/28/2015 5:18:59a 185 0 0 35 86 67.6 49.8 29.85 9.40 0.0 0 0.01 0.00 0.03 0.000
2/28/2015 5:20:00a 185 0 0 35 86 67.6 49.8 29.85 9.40 0.0 0 0.01 0.00 0.03 0.000
2/28/2015 5:21:00a 184 0 0 35 86 67.6 49.8 29.85 9.40 0.0 0 0.01 0.00 0.03 0.000
2/28/2015 5:22:00a 185 0 0 35 86 67.6 49.8 29.85 9.40 0.0 0 0.01 0.00 0.03 0.000
2/28/2015 5:23:00a 185 0 0 35 86 67.6 49.8 29.85 9.40 0.0 0 0.01 0.00 0.03 0.000
2/28/2015 5:24:00a 184 0 1 35 86 67.6 49.8 29.85 9.40 0.0 0 0.01 0.00 0.03 0.000
2/28/2015 5:25:00a 185 1 2 35 86 67.6 49.7 29.85 9.40 0.0 0 0.01 0.00 0.03 0.000
2/28/2015 5:26:00a 185 0 2 35 86 67.6 49.7 29.85 9.40 0.0 0 0.01 0.00 0.03 0.000
2/28/2015 5:27:00a 185 0 2 35 86 67.5 49.7 29.85 9.40 0.0 0 0.01 0.00 0.03 0.000
2/28/2015 5:28:00a 185 2 2 35 86 67.5 49.7 29.85 9.40 0.0 0 0.01 0.00 0.03 0.000
2/28/2015 5:29:00a 184 0 2 35 86 67.5 49.7 29.85 9.40 0.0 0 0.01 0.00 0.03 0.000
2/28/2015 5:30:00a 184 0 2 35 86 67.5 49.7 29.85 9.40 0.0 0 0.01 0.00 0.03 0.000
2/28/2015 5:31:00a 185 0 2 35 86 67.5 49.6 29.85 9.40 0.0 0 0.01 0.00 0.03 0.000
2/28/2015 5:32:01a 185 0 2 35 86 67.5 49.6 29.85 9.40 0.0 0 0.01 0.00 0.03 0.000
2/28/2015 5:33:01a 185 0 2 35 86 67.5 49.6 29.85 9.40 0.0 0 0.01 0.00 0.03 0.000
2/28/2015 5:34:01a 185 0 1 35 86 67.5 49.6 29.85 9.40 0.0 0 0.01 0.00 0.03 0.000
2/28/2015 5:35:01a 185 0 1 35 86 67.5 49.5 29.85 9.40 0.0 0 0.01 0.00 0.03 0.000
2/28/2015 5:36:01a 185 0 2 35 86 67.5 49.5 29.85 9.40 0.0 0 0.01 0.00 0.03 0.000
2/28/2015 5:37:01a 184 0 2 35 86 67.5 49.5 29.85 9.40 0.0 0 0.01 0.00 0.03 0.000
2/28/2015 5:38:01a 185 0 2 35 86 67.5 49.5 29.85 9.40 0.0 0 0.01 0.00 0.03 0.000
2/28/2015 5:39:01a 185 0 2 35 86 67.5 49.5 29.85 9.40 0.0 0 0.01 0.00 0.03 0.000
2/28/2015 5:40:01a 185 0 2 35 86 67.5 49.5 29.85 9.40 0.0 0 0.01 0.00 0.03 0.000
2/28/2015 5:41:01a 185 0 2 35 86 67.5 49.5 29.85 9.40 0.0 0 0.01 0.00 0.03 0.000
2/28/2015 5:42:01a 185 0 2 35 86 67.3 49.5 29.85 9.40 0.0 0 0.01 0.00 0.03 0.000
2/28/2015 5:43:01a 185 0 2 35 86 67.3 49.5 29.85 9.40 0.0 0 0.01 0.00 0.03 0.000
2/28/2015 5:44:01a 184 0 2 35 86 67.3 49.5 29.85 9.40 0.0 0 0.01 0.00 0.03 0.000
2/28/2015 5:45:01a 185 0 2 35 86 67.3 49.5 29.86 9.40 0.0 0 0.01 0.00 0.03 0.000
2/28/2015 5:46:02a 185 0 2 35 86 67.3 49.5 29.86 9.40 0.0 0 0.01 0.00 0.03 0.000
2/28/2015 5:47:02a 185 0 2 35 86 67.3 49.5 29.85 9.40 0.0 0 0.01 0.00 0.03 0.000
2/28/2015 5:48:02a 185 0 2 35 86 67.3 49.5 29.85 9.40 0.0 0 0.01 0.00 0.03 0.000
2/28/2015 5:49:05a 185 0 0 35 86 67.3 49.4 29.86 9.40 0.0 0 0.01 0.00 0.03 0.000
2/28/2015 5:50:08a 185 0 0 35 86 67.3 49.4 29.85 9.40 0.0 0 0.01 0.00 0.03 0.000
2/28/2015 5:51:08a 185 0 0 35 86 67.3 49.4 29.85 9.40 0.0 0 0.01 0.00 0.03 0.000
2/28/2015 5:52:08a 185 0 0 35 86 67.3 49.4 29.85 9.40 0.0 0 0.01 0.00 0.03 0.000
2/28/2015 5:53:08a 184 0 0 35 86 67.3 49.4 29.85 9.40 0.0 0 0.01 0.00 0.03 0.000
2/28/2015 5:54:11a 185 0 0 35 86 67.3 49.4 29.85 9.40 0.0 0 0.01 0.00 0.03 0.000
2/28/2015 5:55:11a 185 0 0 35 86 67.3 49.3 29.85 9.40 0.0 0 0.01 0.00 0.03 0.000
2/28/2015 5:56:11a 185 0 0 35 86 67.3 49.3 29.85 9.40 0.0 0 0.01 0.00 0.03 0.000
2/28/2015 5:57:11a 184 0 1 35 86 67.1 49.3 29.85 9.40 0.0 0 0.01 0.00 0.03 0.000
2/28/2015 5:58:12a 184 0 1 35 86 67.1 49.3 29.85 9.40 0.0 0 0.01 0.00 0.03 0.000
2/28/2015 5:59:12a 184 0 1 35 86 67.1 49.2 29.85 9.40 0.0 0 0.01 0.00 0.03 0.000
2/28/2015 6:00:12a 185 0 1 35 86 67.1 49.2 29.85 9.40 0.0 0 0.01 0.00 0.03 0.000
2/28/2015 6:01:12a 185 0 1 35 86 67.1 49.2 29.85 9.40 0.0 0 0.01 0.00 0.03 0.000
2/28/2015 6:02:12a 185 0 1 35 86 67.1 49.2 29.85 9.40 0.0 0 0.01 0.00 0.03 0.000
2/28/2015 6:03:12a 184 0 1 35 86 67.1 49.2 29.85 9.40 0.0 0 0.01 0.00 0.03 0.000
2/28/2015 6:04:12a 184 0 0 35 86 67.1 49.1 29.85 9.40 0.0 0 0.01 0.00 0.03 0.000
2/28/2015 6:05:12a 185 0 0 35 86 67.1 49.1 29.85 9.40 0.0 0 0.01 0.00 0.03 0.000
2/28/2015 6:06:12a 185 0 0 35 86 67.1 49.1 29.85 9.40 0.0 0 0.01 0.00 0.03 0.000
2/28/2015 6:07:12a 185 0 0 35 86 67.1 49.1 29.85 9.40 0.0 0 0.01 0.00 0.03 0.000
2/28/2015 6:08:12a 185 0 0 35 86 67.1 49.1 29.85 9.40 0.0 0 0.01 0.00 0.03 0.000
2/28/2015 6:09:12a 185 0 0 35 86 67.1 49.1 29.85 9.40 0.0 0 0.01 0.00 0.03 0.000
2/28/2015 6:10:12a 184 0 0 35 86 67.0 49.1 29.85 9.40 0.0 0 0.01 0.00 0.03 0.000
2/28/2015 6:11:12a 184 0 1 35 86 67.0 49.0 29.85 9.40 0.0 0 0.01 0.00 0.03 0.000
2/28/2015 6:12:13a 185 0 1 35 86 67.0 49.0 29.85 9.40 0.0 0 0.01 0.00 0.03 0.000
2/28/2015 6:13:13a 185 0 1 35 86 67.0 49.0 29.86 9.40 0.0 0 0.01 0.00 0.03 0.000
2/28/2015 6:14:13a 185 0 1 35 86 67.0 49.0 29.86 9.40 0.0 0 0.01 0.00 0.03 0.000
2/28/2015 6:15:13a 185 0 2 35 86 67.0 49.0 29.86 9.40 0.0 0 0.01 0.00 0.03 0.000
2/28/2015 6:16:13a 185 0 2 35 86 67.0 49.0 29.86 9.40 0.0 0 0.01 0.00 0.03 0.000
2/28/2015 6:17:16a 185 0 2 35 86 67.0 49.0 29.86 9.40 0.0 0 0.01 0.00 0.03 0.000
2/28/2015 6:18:22a 184 0 2 35 86 67.0 49.0 29.86 9.40 0.0 0 0.01 0.00 0.03 0.000
2/28/2015 6:19:22a 185 0 0 35 86 67.0 49.0 29.86 9.40 0.0 0 0.01 0.00 0.03 0.000
2/28/2015 6:20:25a 184 0 0 35 86 67.0 49.0 29.86 9.40 0.0 0 0.01 0.00 0.03 0.000
2/28/2015 6:21:25a 184 0 0 35 86 67.0 49.0 29.86 9.40 0.0 0 0.01 0.00 0.03 0.000
2/28/2015 6:22:25a 185 0 0 35 86 67.0 49.0 29.86 9.40 0.0 0 0.01 0.00 0.03 0.000
2/28/2015 6:23:26a 185 0 1 35 86 66.8 49.0 29.86 9.40 0.0 0 0.01 0.00 0.03 0.000
2/28/2015 6:24:29a 185 0 1 35 86 66.8 49.0 29.86 9.40 0.0 0 0.01 0.00 0.03 0.000
2/28/2015 6:25:29a 185 0 1 35 86 66.8 49.0 29.86 9.40 0.0 0 0.01 0.00 0.03 0.000
2/28/2015 6:26:29a 185 0 1 35 86 66.8 49.0 29.86 9.40 0.0 0 0.01 0.00 0.03 0.000
2/28/2015 6:27:29a 185 1 3 35 86 66.8 49.0 29.86 9.40 0.0 0 0.01 0.00 0.03 0.000
2/28/2015 6:28:29a 184 1 4 35 86 66.8 49.0 29.86 9.40 0.0 0 0.01 0.00 0.03 0.000
2/28/2015 6:29:29a 183 3 4 35 86 66.8 49.0 29.86 9.40 0.0 5 0.01 0.00 0.03 0.000
2/28/2015 6:30:29a 183 3 4 35 86 66.8 49.0 29.86 9.40 0.0 5 0.01 0.00 0.03 0.000
2/28/2015 6:31:29a 183 0 4 35 86 66.8 49.0 29.86 9.40 0.0 5 0.01 0.00 0.03 0.000
2/28/2015 6:32:29a 183 0 4 35 86 66.8 49.0 29.86 9.40 0.0 5 0.01 0.00 0.03 0.000
2/28/2015 6:33:30a 183 0 4 35 86 66.8 49.0 29.86 9.40 0.0 5 0.01 0.00 0.03 0.000
2/28/2015 6:34:30a 183 1 2 35 86 66.8 49.0 29.86 9.40 0.0 5 0.01 0.00 0.03 0.000
2/28/2015 6:35:30a 183 0 2 35 86 66.8 49.0 29.86 9.40 0.0 5 0.01 0.00 0.03 0.000
2/28/2015 6:36:30a 183 2 2 35 86 66.8 49.0 29.86 9.40 0.0 7 0.01 0.00 0.03 0.000
2/28/2015 6:37:33a 183 2 3 35 86 66.8 49.0 29.86 9.40 0.0 7 0.01 0.00 0.03 0.000
2/28/2015 6:38:33a 172 3 3 35 86 66.7 49.0 29.86 9.40 0.0 7 0.01 0.00 0.03 0.000
2/28/2015 6:39:33a 169 3 4 35 86 66.7 49.0 29.86 9.40 0.0 9 0.01 0.00 0.03 0.000
2/28/2015 6:40:33a 195 1 4 35 86 66.7 49.0 29.86 9.40 0.0 9 0.01 0.00 0.03 0.000
2/28/2015 6:41:33a 196 2 4 35 86 66.7 49.0 29.86 9.40 0.0 11 0.01 0.00 0.03 0.000
2/28/2015 6:42:34a 196 0 4 35 86 66.7 49.0 29.86 9.40 0.0 11 0.01 0.00 0.03 0.000
2/28/2015 6:43:34a 197 3 4 35 86 66.7 49.0 29.86 9.40 0.0 12 0.01 0.00 0.03 0.000
2/28/2015 6:44:34a 182 5 5 35 86 66.7 49.0 29.86 9.40 0.0 14 0.01 0.00 0.03 0.000
2/28/2015 6:45:34a 165 3 5 35 86 66.7 49.0 29.86 9.40 0.0 16 0.01 0.00 0.03 0.000
2/28/2015 6:46:34a 178 2 5 35 86 66.7 49.0 29.86 9.40 0.0 14 0.01 0.00 0.03 0.000
2/28/2015 6:47:34a 176 1 5 35 86 66.7 49.1 29.87 9.40 0.0 12 0.01 0.00 0.03 0.000
2/28/2015 6:48:34a 176 0 5 35 86 66.7 49.1 29.86 9.40 0.0 12 0.01 0.00 0.03 0.000
2/28/2015 6:49:34a 177 2 3 35 86 66.7 49.1 29.86 9.40 0.0 12 0.01 0.00 0.03 0.000
2/28/2015 6:50:34a 177 2 3 35 86 66.7 49.1 29.87 9.40 0.0 14 0.01 0.00 0.03 0.000
2/28/2015 6:51:34a 176 0 3 35 86 66.7 49.1 29.87 9.40 0.0 18 0.01 0.00 0.03 0.000
2/28/2015 6:52:34a 177 1 3 35 86 66.7 49.1 29.87 9.40 0.0 18 0.01 0.00 0.03 0.000
2/28/2015 6:53:35a 176 0 3 35 86 66.7 49.1 29.87 9.40 0.0 18 0.01 0.00 0.03 0.000
2/28/2015 6:54:35a 177 0 3 35 86 66.5 49.1 29.87 9.40 0.0 19 0.01 0.00 0.03 0.000
2/28/2015 6:55:41a 191 0 3 35 86 66.5 49.1 29.87 9.40 0.0 19 0.01 0.00 0.03 0.000
2/28/2015 6:56:44a 191 0 3 35 86 66.5 49.1 29.87 9.40 0.0 19 0.01 0.00 0.03 0.000
2/28/2015 6:57:44a 191 0 3 35 86 66.5 49.1 29.87 9.40 0.0 23 0.01 0.00 0.03 0.000
2/28/2015 6:58:44a 190 0 3 35 86 66.5 49.1 29.87 9.40 0.0 28 0.01 0.00 0.03 0.000
2/28/2015 6:59:45a 190 2 3 35 86 66.5 49.2 29.87 9.40 0.0 37 0.01 0.00 0.03 0.000
2/28/2015 7:00:45a 190 0 3 35 86 66.5 49.2 29.87 9.40 0.0 47 0.01 0.00 0.03 0.000
2/28/2015 7:01:45a 190 0 3 35 86 66.5 49.2 29.87 9.40 0.0 54 0.01 0.00 0.03 0.000
2/28/2015 7:02:45a 190 0 3 35 86 66.5 49.2 29.87 9.40 0.0 63 0.01 0.00 0.03 0.000
2/28/2015 7:03:45a 190 0 0 35 86 66.5 49.2 29.87 9.40 0.0 69 0.01 0.00 0.03 0.000
2/28/2015 7:04:45a 190 0 0 35 86 66.5 49.2 29.87 9.40 0.0 70 0.01 0.00 0.03 0.000
2/28/2015 7:05:48a 190 0 0 35 86 66.5 49.2 29.87 9.40 0.0 72 0.01 0.00 0.03 0.000
2/28/2015 7:06:48a 190 1 1 35 86 66.5 49.2 29.87 9.40 0.0 74 0.01 0.00 0.03 0.000
2/28/2015 7:07:48a 190 0 3 35 86 66.5 49.3 29.88 9.40 0.0 74 0.01 0.00 0.03 0.000
2/28/2015 7:08:48a 190 1 3 35 86 66.5 49.3 29.88 9.40 0.0 72 0.01 0.00 0.03 0.000
2/28/2015 7:09:48a 190 1 3 35 86 66.5 49.3 29.88 9.40 0.0 70 0.01 0.00 0.03 0.000
2/28/2015 7:10:49a 190 0 3 35 86 66.5 49.3 29.88 9.40 0.0 69 0.01 0.00 0.03 0.000
2/28/2015 7:11:49a 190 4 4 35 86 66.5 49.3 29.88 9.40 0.0 67 0.01 0.00 0.03 0.000
2/28/2015 7:12:49a 192 0 4 35 86 66.3 49.3 29.88 9.40 0.0 63 0.01 0.00 0.03 0.000
2/28/2015 7:13:49a 202 0 4 35 86 66.3 49.3 29.88 9.40 0.0 63 0.01 0.00 0.03 0.000
2/28/2015 7:14:49a 202 3 4 35 86 66.3 49.2 29.88 9.40 0.0 63 0.01 0.00 0.03 0.000
2/28/2015 7:15:49a 203 2 4 35 86 66.3 49.3 29.88 9.40 0.0 63 0.01 0.00 0.03 0.000
2/28/2015 7:16:49a 157 3 5 35 86 66.3 49.2 29.88 9.40 0.0 62 0.01 0.00 0.03 0.000
2/28/2015 7:17:49a 192 3 5 35 86 66.3 49.2 29.88 9.40 0.0 62 0.01 0.00 0.03 0.000
2/28/2015 7:18:49a 190 3 3 35 85 66.3 49.2 29.88 9.40 0.0 62 0.01 0.00 0.03 0.000
2/28/2015 7:19:49a 190 3 3 35 85 66.3 49.2 29.88 9.40 0.0 63 0.01 0.00 0.03 0.000
2/28/2015 7:20:49a 188 3 3 35 85 66.3 49.2 29.89 9.40 0.0 65 0.01 0.00 0.03 0.000
2/28/2015 7:21:50a 188 1 3 35 85 66.3 49.2 29.89 9.40 0.0 65 0.01 0.00 0.03 0.000
2/28/2015 7:22:50a 190 1 3 35 85 66.3 49.2 29.89 9.40 0.0 72 0.01 0.00 0.03 0.000
2/28/2015 7:23:50a 188 3 3 35 85 66.3 49.2 29.89 9.40 0.0 74 0.01 0.00 0.03 0.000
2/28/2015 7:24:50a 187 2 3 35 85 66.3 49.3 29.89 9.40 0.0 77 0.01 0.00 0.03 0.000
2/28/2015 7:25:50a 188 2 4 35 85 66.3 49.3 29.89 9.40 0.0 79 0.01 0.00 0.03 0.000
2/28/2015 7:26:50a 189 3 4 35 85 66.3 49.3 29.89 9.40 0.0 83 0.01 0.00 0.03 0.000
2/28/2015 7:27:50a 189 4 4 35 85 66.3 49.3 29.89 9.40 0.0 86 0.01 0.00 0.03 0.000
2/28/2015 7:28:50a 188 3 4 35 85 66.3 49.3 29.89 9.40 0.0 90 0.01 0.00 0.03 0.000
2/28/2015 7:29:50a 189 3 4 35 85 66.3 49.3 29.89 9.40 0.0 91 0.01 0.00 0.03 0.000
2/28/2015 7:30:50a 189 1 4 35 85 66.3 49.3 29.89 9.40 0.0 90 0.01 0.00 0.03 0.000
2/28/2015 7:31:50a 188 0 4 35 85 66.3 49.3 29.89 9.40 0.0 91 0.01 0.00 0.03 0.000
2/28/2015 7:32:50a 188 0 4 35 85 66.3 49.3 29.89 9.40 0.0 91 0.01 0.00 0.03 0.000
2/28/2015 7:33:50a 188 2 2 35 85 66.3 49.3 29.89 9.40 0.0 93 0.01 0.00 0.03 0.000
2/28/2015 7:34:51a 189 0 2 35 85 66.2 49.4 29.89 9.40 0.0 95 0.01 0.00 0.03 0.000
2/28/2015 7:35:51a 202 1 3 35 85 66.2 49.4 29.89 9.40 0.0 98 0.01 0.00 0.03 0.000
2/28/2015 7:36:51a 202 0 3 35 85 66.2 49.4 29.89 9.40 0.0 95 0.01 0.00 0.03 0.000
2/28/2015 7:37:51a 192 3 4 35 85 66.2 49.4 29.89 9.40 0.0 95 0.01 0.00 0.03 0.000
2/28/2015 7:38:51a 191 0 4 35 85 66.2 49.4 29.89 9.40 0.0 95 0.01 0.00 0.03 0.000
2/28/2015 7:39:51a 190 0 4 35 85 66.2 49.5 29.89 9.40 0.0 98 0.01 0.00 0.03 0.000
2/28/2015 7:40:51a 209 3 4 35 85 66.2 49.5 29.89 9.40 0.0 95 0.01 0.00 0.03 0.000
2/28/2015 7:41:51a 180 4 4 35 85 66.2 49.5 29.89 9.40 0.0 91 0.01 0.00 0.03 0.000
2/28/2015 7:42:51a 199 4 6 35 85 66.2 49.5 29.89 9.40 0.0 95 0.01 0.00 0.03 0.000
2/28/2015 7:43:51a 207 4 6 35 85 66.2 49.5 29.89 9.40 0.0 98 0.01 0.00 0.03 0.000
2/28/2015 7:44:51a 207 0 6 35 85 66.2 49.5 29.89 9.40 0.0 104 0.01 0.00 0.03 0.000
2/28/2015 7:45:52a 140 4 6 35 85 66.2 49.5 29.89 9.40 0.0 105 0.01 0.00 0.03 0.000
2/28/2015 7:46:52a 171 3 6 35 85 66.2 49.6 29.90 9.40 0.5 107 0.01 0.00 0.03 0.000
2/28/2015 7:47:52a 203 2 6 35 85 66.2 49.6 29.90 9.40 0.5 121 0.01 0.00 0.03 0.000
2/28/2015 7:48:52a 203 2 4 35 85 66.2 49.6 29.90 9.40 0.5 137 0.01 0.00 0.03 0.000
2/28/2015 7:49:52a 198 0 4 35 85 66.2 49.6 29.90 9.40 0.5 148 0.01 0.00 0.03 0.000
2/28/2015 7:50:52a 171 3 4 35 85 66.2 49.6 29.90 9.40 0.5 160 0.01 0.00 0.03 0.000
2/28/2015 7:51:52a 169 2 4 35 84 66.2 49.7 29.90 9.40 0.5 172 0.01 0.00 0.03 0.000
2/28/2015 7:52:55a 169 3 4 35 84 66.2 49.7 29.90 9.40 0.5 174 0.01 0.00 0.03 0.000
2/28/2015 7:53:55a 195 1 4 35 84 66.2 49.7 29.90 9.40 0.5 169 0.01 0.00 0.03 0.000
2/28/2015 7:54:56a 199 1 4 35 84 66.2 49.8 29.90 9.40 0.5 169 0.01 0.00 0.03 0.000
2/28/2015 7:55:56a 229 0 4 35 84 66.2 49.8 29.90 9.40 0.5 167 0.01 0.00 0.03 0.000
2/28/2015 7:56:56a 229 2 4 35 84 66.2 49.8 29.90 9.40 0.5 171 0.01 0.00 0.03 0.000
2/28/2015 7:57:56a 228 1 4 35 84 66.2 49.9 29.90 9.40 0.5 174 0.01 0.00 0.03 0.000
2/28/2015 7:58:59a 188 5 7 35 84 66.2 49.9 29.90 9.40 0.5 171 0.01 0.00 0.03 0.000
2/28/2015 7:59:59a 161 3 7 35 84 66.2 49.9 29.90 9.40 0.5 165 0.01 0.00 0.03 0.000
2/28/2015 8:01:02a 161 4 7 35 84 66.2 49.9 29.90 9.40 0.5 162 0.01 0.00 0.03 0.000
2/28/2015 8:02:02a 190 1 7 35 84 66.2 50.0 29.90 9.40 0.5 160 0.01 0.00 0.03 0.000
2/28/2015 8:03:02a 172 3 7 35 84 66.2 50.0 29.90 9.40 0.6 160 0.01 0.00 0.03 0.000
2/28/2015 8:04:02a 173 2 3 35 84 66.2 50.0 29.91 9.40 0.6 158 0.01 0.00 0.03 0.000
2/28/2015 8:05:09a 180 3 5 35 84 66.2 50.0 29.91 9.40 0.6 155 0.01 0.00 0.03 0.000
2/28/2015 8:06:09a 196 2 5 35 84 66.2 50.0 29.91 9.40 0.6 153 0.01 0.00 0.03 0.000
2/28/2015 8:07:12a 169 3 5 35 83 66.2 50.0 29.91 9.40 0.6 158 0.01 0.00 0.03 0.000
2/28/2015 8:08:12a 157 5 6 35 83 66.2 50.0 29.91 9.40 0.6 163 0.01 0.00 0.03 0.000
2/28/2015 8:09:12a 174 4 6 35 83 66.2 50.0 29.91 9.40 0.6 158 0.01 0.00 0.03 0.000
2/28/2015 8:10:12a 174 1 6 35 83 66.2 50.1 29.91 9.40 0.6 151 0.01 0.00 0.03 0.000
2/28/2015 8:11:12a 192 2 6 35 83 66.2 50.1 29.91 9.40 0.6 151 0.01 0.00 0.03 0.000
2/28/2015 8:12:21a 192 2 6 35 83 66.0 50.1 29.91 9.40 0.6 135 0.01 0.00 0.03 0.000
2/28/2015 8:13:21a 188 2 6 35 83 66.0 50.2 29.91 9.40 0.6 134 0.01 0.00 0.03 0.000
2/28/2015 8:14:21a 169 4 6 35 83 66.0 50.2 29.91 9.40 0.6 135 0.01 0.00 0.03 0.000
2/28/2015 8:15:22a 186 4 7 35 83 66.0 50.2 29.91 9.40 0.6 141 0.01 0.00 0.03 0.000
2/28/2015 8:16:22a 188 6 7 35 83 66.2 50.3 29.91 9.40 0.6 146 0.01 0.00 0.03 0.000
2/28/2015 8:17:22a 165 3 7 35 83 66.2 50.2 29.91 9.40 0.7 151 0.01 0.00 0.03 0.000
2/28/2015 8:18:22a 182 1 7 35 83 66.2 50.2 29.91 9.40 0.7 156 0.01 0.00 0.03 0.000
2/28/2015 8:19:22a 182 1 2 35 82 66.2 50.3 29.91 9.40 0.7 160 0.01 0.00 0.03 0.000
2/28/2015 8:20:22a 197 2 2 35 82 66.2 50.3 29.91 9.40 0.7 151 0.01 0.00 0.03 0.000
2/28/2015 8:21:22a 197 1 2 35 82 66.2 50.3 29.91 9.40 0.7 144 0.01 0.00 0.03 0.000
2/28/2015 8:22:22a 180 3 4 35 82 66.2 50.3 29.91 9.40 0.7 144 0.01 0.00 0.03 0.000
2/28/2015 8:23:22a 205 3 4 35 82 66.2 50.3 29.91 9.40 0.7 142 0.01 0.00 0.03 0.000
2/28/2015 8:24:25a 199 4 6 35 82 66.2 50.4 29.91 9.40 0.7 139 0.01 0.00 0.03 0.000
2/28/2015 8:25:25a 205 4 6 35 82 66.2 50.4 29.91 9.40 0.8 139 0.01 0.00 0.03 0.000
2/28/2015 8:26:26a 194 4 6 35 82 66.2 50.4 29.91 9.40 0.8 144 0.01 0.00 0.03 0.000
2/28/2015 8:27:26a 195 3 6 35 82 66.2 50.4 29.91 9.40 0.8 155 0.01 0.00 0.03 0.000
2/28/2015 8:28:26a 195 1 6 35 82 66.2 50.4 29.91 9.40 0.8 155 0.01 0.00 0.03 0.000
2/28/2015 8:29:26a 195 1 6 35 82 66.2 50.4 29.91 9.40 0.9 181 0.01 0.00 0.03 0.000
2/28/2015 8:30:26a 197 3 6 35 82 66.2 50.5 29.91 9.40 0.9 190 0.01 0.00 0.03 0.000
2/28/2015 8:31:26a 197 0 6 35 82 66.2 50.5 29.91 9.40 0.9 227 0.01 0.00 0.03 0.000
2/28/2015 8:32:26a 219 4 6 35 82 66.2 50.5 29.91 9.40 1.1 227 0.01 0.00 0.03 0.000
2/28/2015 8:33:26a 217 1 6 35 81 66.2 50.5 29.91 9.40 1.0 243 0.01 0.00 0.03 0.000
2/28/2015 8:34:26a 220 2 3 35 81 66.2 50.5 29.91 9.40 0.9 243 0.01 0.00 0.03 0.000
2/28/2015 8:35:26a 204 0 3 35 81 66.2 50.6 29.91 9.40 1.0 206 0.01 0.00 0.03 0.000
2/28/2015 8:36:27a 179 1 3 35 81 66.2 50.6 29.91 9.40 1.0 220 0.01 0.00 0.03 0.000
2/28/2015 8:37:27a 149 2 3 35 81 66.2 50.7 29.91 9.40 1.3 220 0.01 0.00 0.03 0.000
2/28/2015 8:38:27a 179 3 5 35 81 66.2 50.7 29.91 9.40 1.4 490 0.01 0.00 0.03 0.000
2/28/2015 8:39:27a 147 1 5 35 81 66.2 50.8 29.91 9.40 1.4 490 0.01 0.00 0.03 0.000
2/28/2015 8:40:27a 183 1 5 35 81 66.2 50.8 29.91 9.40 1.4 332 0.01 0.00 0.03 0.000
2/28/2015 8:41:27a 183 0 5 35 81 66.2 50.9 29.91 9.40 1.5 332 0.01 0.00 0.03 0.000
2/28/2015 8:42:27a 183 1 5 35 81 66.2 51.0 29.91 9.40 1.5 615 0.01 0.00 0.03 0.000
2/28/2015 8:43:27a 182 0 5 35 81 66.2 51.1 29.91 9.40 1.5 631 0.01 0.00 0.03 0.000
2/28/2015 8:44:27a 178 2 5 35 81 66.2 51.2 29.91 9.40 1.6 649 0.01 0.00 0.03 0.000
2/28/2015 8:45:27a 168 2 5 35 81 66.2 51.3 29.92 9.40 1.6 668 0.01 0.00 0.03 0.000
2/28/2015 8:46:28a 164 2 5 35 81 66.2 51.3 29.92 9.40 1.3 668 0.01 0.00 0.03 0.000
2/28/2015 8:47:28a 164 1 5 35 81 66.2 51.5 29.91 9.40 1.2 288 0.01 0.00 0.03 0.000
2/28/2015 8:48:28a 208 4 5 35 81 66.2 51.5 29.92 9.40 1.6 288 0.01 0.00 0.03 0.000
2/28/2015 8:49:28a 197 5 7 35 81 66.2 51.6 29.91 9.40 1.6 657 0.01 0.00 0.03 0.000
2/28/2015 8:50:28a 162 2 7 35 80 66.2 51.7 29.92 9.40 1.6 693 0.01 0.00 0.03 0.000
2/28/2015 8:51:28a 162 2 7 35 80 66.2 51.8 29.91 9.40 1.5 603 0.01 0.00 0.03 0.000
2/28/2015 8:52:28a 179 4 7 35 80 66.2 51.8 29.92 9.40 1.6 603 0.01 0.00 0.03 0.000
2/28/2015 8:53:28a 197 5 9 35 80 66.2 52.0 29.92 9.40 1.6 729 0.01 0.00 0.03 0.000
2/28/2015 8:54:28a 193 6 9 35 80 66.2 52.0 29.92 9.40 1.6 717 0.01 0.00 0.03 0.000
2/28/2015 8:55:28a 176 4 9 35 80 66.2 52.1 29.92 9.40 1.6 717 0.01 0.00 0.03 0.000
2/28/2015 8:56:29a 176 2 9 35 79 66.2 52.2 29.92 9.40 1.6 612 0.01 0.00 0.03 0.000
2/28/2015 8:57:29a 180 2 9 35 79 66.2 52.3 29.92 9.40 1.6 596 0.01 0.00 0.03 0.000
2/28/2015 8:58:29a 209 3 9 35 79 66.2 52.4 29.91 9.40 1.7 596 0.01 0.00 0.03 0.000
2/28/2015 8:59:32a 197 2 9 35 79 66.2 52.5 29.91 9.40 1.8 682 0.01 0.00 0.03 0.000
2/28/2015 9:00:32a 172 4 9 35 79 66.2 52.5 29.91 9.40 1.8 397 0.01 0.00 0.03 0.000
2/28/2015 9:01:32a 174 2 9 35 78 66.2 52.6 29.91 9.40 1.4 429 0.01 0.00 0.03 0.000
2/28/2015 9:02:32a 175 5 9 35 78 66.2 52.7 29.91 9.40 1.6 513 0.01 0.00 0.03 0.000
2/28/2015 9:03:32a 180 0 9 35 78 66.2 52.8 29.91 9.40 1.4 461 0.01 0.00 0.03 0.000
2/28/2015 9:04:32a 180 0 1 35 78 66.3 52.8 29.91 9.40 1.3 413 0.01 0.00 0.03 0.000
2/28/2015 9:05:32a 186 4 4 35 78 66.3 52.9 29.91 9.40 1.3 313 0.01 0.00 0.03 0.000
2/28/2015 9:06:32a 195 6 9 35 77 66.3 53.0 29.91 9.40 1.3 330 0.01 0.00 0.03 0.000
2/28/2015 9:07:33a 184 2 9 35 77 66.3 53.1 29.91 9.40 1.4 388 0.01 0.00 0.03 0.000
2/28/2015 9:08:33a 197 4 9 35 76 66.3 53.1 29.91 9.40 1.4 353 0.01 0.00 0.03 0.000
2/28/2015 9:09:33a 202 4 9 35 76 66.3 53.1 29.91 9.40 1.4 373 0.01 0.00 0.03 0.000
2/28/2015 9:10:33a 182 6 9 35 75 66.3 53.1 29.91 9.40 1.3 373 0.01 0.00 0.03 0.000
2/28/2015 9:11:33a 184 4 9 35 75 66.3 53.1 29.91 9.40 1.3 359 0.01 0.00 0.03 0.000
2/28/2015 9:12:33a 178 6 9 35 74 66.3 53.1 29.91 9.40 1.3 329 0.01 0.00 0.03 0.000
2/28/2015 9:13:33a 155 5 9 35 74 66.3 53.1 29.91 9.40 1.3 327 0.01 0.00 0.03 0.000
2/28/2015 9:14:33a 163 5 9 35 74 66.3 53.1 29.91 9.40 1.3 327 0.01 0.00 0.03 0.000
2/28/2015 9:15:33a 197 4 9 35 73 66.3 53.1 29.92 9.40 1.3 334 0.01 0.00 0.03 0.000
2/28/2015 9:16:33a 189 5 11 35 72 66.5 53.1 29.91 9.40 1.2 308 0.01 0.00 0.03 0.000
2/28/2015 9:17:33a 171 5 11 35 72 66.5 53.1 29.91 9.40 1.2 353 0.01 0.00 0.03 0.000
2/28/2015 9:18:33a 164 0 11 35 72 66.5 53.1 29.91 9.40 1.4 322 0.01 0.00 0.03 0.000
2/28/2015 9:19:33a 166 6 8 35 72 66.5 53.1 29.91 9.40 1.2 322 0.01 0.00 0.03 0.000
2/28/2015 9:20:33a 168 5 8 35 71 66.5 53.1 29.91 9.40 1.1 329 0.01 0.00 0.03 0.000
2/28/2015 9:21:34a 171 7 10 35 71 66.5 53.2 29.91 9.40 1.1 285 0.01 0.00 0.03 0.000
2/28/2015 9:22:34a 156 8 10 35 71 66.5 53.2 29.91 9.40 1.1 301 0.01 0.00 0.03 0.000
2/28/2015 9:23:40a 167 3 10 35 70 66.5 53.2 29.91 9.40 1.1 301 0.01 0.00 0.03 0.000
2/28/2015 9:24:40a 161 4 10 35 70 66.5 53.3 29.91 9.40 1.0 276 0.01 0.00 0.03 0.000
2/28/2015 9:25:43a 197 2 10 35 70 66.7 53.4 29.91 9.40 1.1 279 0.01 0.00 0.03 0.000
2/28/2015 9:26:43a 193 9 10 35 70 66.7 53.4 29.91 9.40 1.1 288 0.01 0.00 0.03 0.000
2/28/2015 9:27:43a 169 4 10 35 70 66.7 53.5 29.91 9.40 1.1 281 0.01 0.00 0.03 0.000
2/28/2015 9:28:43a 118 7 10 35 70 66.7 53.5 29.91 9.40 1.2 299 0.01 0.00 0.03 0.000
2/28/2015 9:29:43a 168 6 10 35 69 66.7 53.5 29.91 9.40 1.4 325 0.01 0.00 0.03 0.000
2/28/2015 9:30:43a 156 3 10 35 69 66.7 53.5 29.91 9.40 1.5 348 0.01 0.00 0.03 0.000
2/28/2015 9:31:43a 157 4 10 35 69 66.7 53.5 29.91 9.40 1.6 367 0.01 0.00 0.03 0.000
2/28/2015 9:32:43a 190 6 10 35 68 66.7 53.5 29.91 9.40 1.6 367 0.01 0.00 0.03 0.000
2/28/2015 9:33:50a 175 7 7 35 68 66.7 53.5 29.91 9.40 1.6 397 0.01 0.00 0.03 0.000
2/28/2015 9:35:14a 194 3 9 35 68 66.8 53.5 29.91 9.40 1.7 399 0.01 0.00 0.03 0.000
2/28/2015 9:36:14a 215 4 9 35 67 66.8 53.5 29.91 9.40 1.6 397 0.01 0.00 0.03 0.000
2/28/2015 9:37:14a 192 3 9 35 67 66.8 53.6 29.91 9.40 1.6 371 0.01 0.00 0.03 0.000
2/28/2015 9:38:14a 179 5 9 35 67 66.8 53.6 29.91 9.40 1.4 348 0.01 0.00 0.03 0.000
2/28/2015 9:39:14a 172 6 9 35 67 66.8 53.7 29.91 9.40 1.5 355 0.01 0.00 0.03 0.000
2/28/2015 9:40:14a 188 5 10 35 67 66.8 53.7 29.91 9.40 1.2 355 0.01 0.00 0.03 0.000
2/28/2015 9:41:14a 209 4 10 35 67 66.8 53.8 29.91 9.40 1.2 355 0.01 0.00 0.03 0.000
2/28/2015 9:42:14a 190 7 10 35 67 66.8 53.9 29.91 9.40 1.0 355 0.01 0.00 0.03 0.000
2/28/2015 9:43:15a 186 5 10 35 67 67.0 53.9 29.91 9.40 0.9 211 0.01 0.00 0.03 0.000
2/28/2015 9:44:15a 199 4 10 35 67 67.0 54.0 29.91 9.40 0.9 211 0.01 0.00 0.03 0.000
2/28/2015 9:45:15a 186 4 10 35 66 67.0 54.0 29.91 9.40 0.8 202 0.01 0.00 0.03 0.000
2/28/2015 9:46:15a 178 9 10 35 66 67.0 54.0 29.91 9.40 0.8 190 0.01 0.00 0.03 0.000
2/28/2015 9:47:15a 190 5 10 35 66 67.0 54.1 29.92 9.40 0.8 183 0.01 0.00 0.03 0.000
2/28/2015 9:48:15a 199 7 10 35 66 67.0 54.0 29.92 9.40 0.8 185 0.01 0.00 0.03 0.000
2/28/2015 9:49:15a 203 10 10 35 66 67.0 54.0 29.92 9.40 0.8 185 0.01 0.00 0.03 0.000
2/28/2015 9:50:15a 142 6 12 35 65 67.0 54.0 29.92 9.40 0.9 195 0.01 0.00 0.03 0.000
2/28/2015 9:51:15a 172 10 12 35 65 67.1 54.0 29.92 9.40 0.8 188 0.01 0.00 0.03 0.000
2/28/2015 9:52:16a 180 2 12 35 65 67.1 53.9 29.92 9.40 0.8 183 0.01 0.00 0.03 0.000
2/28/2015 9:53:16a 205 6 13 35 65 67.1 53.9 29.92 9.40 0.7 153 0.01 0.00 0.03 0.000
2/28/2015 9:54:16a 199 10 14 35 65 67.1 53.8 29.92 9.40 0.7 142 0.01 0.00 0.03 0.000
2/28/2015 9:55:16a 182 6 14 35 65 67.1 53.8 29.92 9.40 0.7 151 0.01 0.00 0.03 0.000
2/28/2015 9:56:16a 203 7 14 35 64 67.1 53.7 29.92 9.40 0.7 156 0.01 0.00 0.03 0.000
2/28/2015 9:57:16a 167 5 14 35 64 67.1 53.6 29.92 9.40 0.7 148 0.01 0.00 0.03 0.000
2/28/2015 9:58:16a 180 3 14 35 65 67.1 53.6 29.92 9.40 0.7 144 0.01 0.00 0.03 0.000
2/28/2015 9:59:16a 157 9 14 35 64 67.3 53.5 29.92 9.40 0.7 148 0.01 0.00 0.03 0.000
2/28/2015 10:00:16a 176 5 14 35 64 67.3 53.5 29.92 9.40 0.7 146 0.01 0.00 0.03 0.000
2/28/2015 10:01:16a 186 7 14 35 64 67.3 53.4 29.93 9.40 0.7 146 0.01 0.00 0.03 0.000
2/28/2015 10:02:16a 180 7 14 35 63 67.3 53.4 29.93 9.40 0.7 144 0.01 0.00 0.03 0.000
2/28/2015 10:03:16a 151 6 14 35 63 67.3 53.3 29.93 9.40 0.7 142 0.01 0.00 0.03 0.000
2/28/2015 10:04:16a 191 5 8 35 63 67.3 53.3 29.93 9.40 0.7 144 0.01 0.00 0.03 0.000
2/28/2015 10:05:16a 191 11 14 35 64 67.3 53.3 29.93 9.40 0.7 146 0.01 0.00 0.03 0.000
2/28/2015 10:06:17a 213 6 14 35 64 67.3 53.4 29.93 9.40 0.7 142 0.01 0.00 0.03 0.000
2/28/2015 10:07:17a 198 6 14 35 64 67.5 53.3 29.93 9.40 0.7 146 0.01 0.00 0.03 0.000
2/28/2015 10:08:17a 186 9 14 35 64 67.5 53.4 29.93 9.40 0.7 155 0.01 0.00 0.03 0.000
2/28/2015 10:09:17a 219 4 14 35 64 67.5 53.4 29.93 9.40 0.8 171 0.01 0.00 0.03 0.000
2/28/2015 10:10:17a 217 5 14 35 64 67.5 53.4 29.93 9.40 0.8 171 0.01 0.00 0.03 0.000
2/28/2015 10:11:17a 213 7 14 35 64 67.5 53.3 29.93 9.40 0.7 156 0.01 0.00 0.03 0.000
2/28/2015 10:12:20a 211 6 14 35 64 67.5 53.3 29.93 9.40 0.7 128 0.01 0.00 0.03 0.000
2/28/2015 10:13:20a 205 4 14 35 64 67.5 53.4 29.93 9.40 0.6 123 0.01 0.00 0.03 0.000
2/28/2015 10:14:20a 218 5 14 35 64 67.5 53.4 29.93 9.40 0.6 125 0.01 0.00 0.03 0.000
2/28/2015 10:15:20a 171 4 14 35 64 67.5 53.4 29.93 9.40 0.7 134 0.01 0.00 0.03 0.000
2/28/2015 10:16:23a 199 5 14 35 64 67.6 53.4 29.93 9.40 0.8 146 0.01 0.00 0.03 0.000
2/28/2015 10:17:23a 184 3 14 35 64 67.6 53.4 29.93 9.40 0.9 192 0.01 0.00 0.03 0.000
2/28/2015 10:18:24a 161 4 14 35 65 67.6 53.4 29.93 9.40 1.1 192 0.01 0.00 0.03 0.000
2/28/2015 10:19:24a 162 6 6 35 65 67.6 53.4 29.93 9.40 1.2 225 0.01 0.00 0.03 0.000
2/28/2015 10:20:24a 195 4 8 35 65 67.6 53.4 29.93 9.40 1.3 251 0.01 0.00 0.03 0.000
2/28/2015 10:21:24a 193 10 13 35 65 67.6 53.4 29.93 9.40 1.3 246 0.01 0.00 0.03 0.000
2/28/2015 10:22:24a 225 3 13 35 65 67.6 53.4 29.92 9.40 1.0 197 0.01 0.00 0.03 0.000
2/28/2015 10:23:24a 204 7 13 35 65 67.6 53.5 29.92 9.40 0.9 148 0.01 0.00 0.03 0.000
2/28/2015 10:24:24a 199 4 13 35 65 67.6 53.5 29.92 9.40 0.8 137 0.01 0.00 0.03 0.000
2/28/2015 10:25:24a 207 5 13 34 65 67.6 53.5 29.92 9.40 0.7 137 0.01 0.00 0.03 0.000
2/28/2015 10:26:24a 201 4 13 34 65 67.6 53.5 29.92 9.40 0.8 153 0.01 0.00 0.03 0.000
2/28/2015 10:27:24a 199 4 13 34 65 67.8 53.5 29.92 9.40 0.9 178 0.01 0.00 0.03 0.000
2/28/2015 10:28:24a 209 6 13 34 65 67.8 53.5 29.92 9.40 0.9 211 0.01 0.00 0.03 0.000
2/28/2015 10:29:24a 205 2 13 34 65 67.8 53.6 29.92 9.40 1.3 260 0.01 0.00 0.03 0.000
2/28/2015 10:30:25a 201 1 13 34 65 67.8 53.6 29.93 9.40 1.3 267 0.01 0.00 0.03 0.000
2/28/2015 10:31:25a 189 4 13 34 65 67.8 53.6 29.92 9.40 1.4 272 0.01 0.00 0.03 0.000
2/28/2015 10:32:25a 222 5 13 34 65 67.8 53.7 29.92 9.40 1.5 285 0.01 0.00 0.03 0.000
2/28/2015 10:33:25a 167 5 13 34 65 67.8 53.7 29.93 9.40 1.6 285 0.01 0.00 0.03 0.000
2/28/2015 10:34:25a 203 4 5 34 65 67.8 53.8 29.92 9.40 1.7 355 0.01 0.00 0.03 0.000
2/28/2015 10:35:25a 176 4 7 34 64 67.8 53.8 29.92 9.40 1.8 355 0.01 0.00 0.03 0.000
2/28/2015 10:36:25a 213 5 7 34 64 67.8 53.9 29.93 9.40 2.1 455 0.01 0.00 0.03 0.000
2/28/2015 10:37:25a 195 4 7 34 65 67.8 54.0 29.92 9.40 2.0 371 0.01 0.00 0.03 0.000
2/28/2015 10:38:28a 175 10 10 34 64 67.8 54.1 29.92 9.40 2.0 357 0.01 0.00 0.03 0.000
2/28/2015 10:39:28a 166 7 13 34 64 67.8 54.1 29.92 9.40 2.0 357 0.01 0.00 0.03 0.000
2/28/2015 10:40:32a 208 4 13 34 64 67.8 54.2 29.92 9.40 2.0 339 0.01 0.00 0.03 0.000
2/28/2015 10:41:35a 191 7 13 34 64 67.9 54.3 29.92 9.40 2.0 339 0.01 0.00 0.03 0.000
2/28/2015 10:42:35a 211 3 13 34 63 67.9 54.3 29.92 9.40 2.0 345 0.01 0.00 0.03 0.000
2/28/2015 10:43:35a 183 9 13 34 63 67.9 54.3 29.93 9.40 2.1 369 0.01 0.00 0.03 0.000
2/28/2015 10:44:35a 234 7 15 34 63 67.9 54.4 29.92 9.40 2.3 408 0.01 0.00 0.03 0.000
2/28/2015 10:45:35a 214 6 15 34 62 67.9 54.4 29.92 9.40 2.6 408 0.01 0.00 0.03 0.000
2/28/2015 10:46:35a 191 5 15 34 62 67.9 54.5 29.92 9.40 3.4 538 0.01 0.00 0.03 0.000
2/28/2015 10:47:35a 242 4 15 34 62 67.9 54.5 29.92 9.40 3.0 538 0.01 0.00 0.03 0.000
2/28/2015 10:48:41a 202 3 4 34 61 67.9 54.6 29.92 9.40 3.8 538 0.01 0.00 0.03 0.000
2/28/2015 10:49:41a 195 5 6 34 61 67.9 54.7 29.92 9.40 3.1 538 0.01 0.00 0.03 0.000
2/28/2015 10:50:44a 261 5 7 34 61 67.9 54.9 29.92 9.40 2.8 577 0.01 0.00 0.03 0.000
2/28/2015 10:51:44a 224 6 7 34 60 67.9 55.1 29.93 9.40 2.9 594 0.01 0.00 0.03 0.000
2/28/2015 10:52:44a 167 7 9 34 60 67.9 55.2 29.93 9.40 3.8 606 0.01 0.00 0.03 0.000
2/28/2015 10:53:44a 206 10 11 34 60 67.9 55.4 29.93 9.40 3.1 652 0.01 0.00 0.03 0.000
2/28/2015 10:54:51a 225 6 12 34 59 67.9 55.5 29.92 9.40 4.1 589 0.01 0.00 0.03 0.000
2/28/2015 10:55:51a 205 6 12 34 59 68.1 55.6 29.92 9.40 3.5 606 0.01 0.00 0.03 0.000
2/28/2015 10:56:51a 195 1 12 34 59 68.1 55.6 29.92 9.40 2.7 522 0.01 0.00 0.03 0.000
2/28/2015 10:57:51a 213 7 12 34 58 68.1 55.7 29.92 9.40 2.4 522 0.01 0.00 0.03 0.000
2/28/2015 10:58:51a 199 9 12 34 58 68.1 55.8 29.92 9.40 2.6 612 0.01 0.00 0.03 0.000
2/28/2015 10:59:51a 249 2 12 34 58 68.1 56.0 29.92 9.40 1.9 612 0.01 0.00 0.03 0.000
2/28/2015 11:00:51a 198 5 12 34 58 68.1 56.0 29.92 9.40 1.7 306 0.01 0.00 0.03 0.000
2/28/2015 11:01:51a 193 4 12 34 58 68.1 56.1 29.92 9.40 1.5 257 0.01 0.00 0.03 0.000
2/28/2015 11:02:51a 219 4 12 34 57 68.1 56.1 29.92 9.40 1.4 246 0.01 0.00 0.03 0.000
2/28/2015 11:03:51a 190 5 7 34 57 68.1 56.1 29.93 9.40 1.3 246 0.01 0.00 0.03 0.000
2/28/2015 11:04:57a 166 4 11 34 57 68.1 56.2 29.93 9.40 1.2 223 0.01 0.00 0.03 0.000
2/28/2015 11:05:57a 159 4 11 34 57 68.1 56.2 29.93 9.40 1.2 211 0.01 0.00 0.03 0.000
2/28/2015 11:06:57a 208 4 11 34 57 68.1 56.2 29.93 9.40 1.1 192 0.01 0.00 0.03 0.000
2/28/2015 11:08:00a 266 6 11 34 57 68.1 56.2 29.93 9.40 1.0 188 0.01 0.00 0.03 0.000
2/28/2015 11:09:01a 199 4 11 34 57 68.1 56.2 29.93 9.40 1.0 192 0.01 0.00 0.03 0.000
2/28/2015 11:10:01a 221 8 11 34 57 68.1 56.2 29.93 9.40 1.1 204 0.01 0.00 0.03 0.000
2/28/2015 11:11:01a 211 3 11 34 57 68.1 56.2 29.92 9.40 1.2 227 0.01 0.00 0.03 0.000
2/28/2015 11:12:01a 208 1 11 34 58 68.3 56.2 29.93 9.40 1.4 265 0.01 0.00 0.03 0.000
2/28/2015 11:13:01a 254 3 11 34 58 68.3 56.2 29.92 9.40 1.5 262 0.01 0.00 0.03 0.000
2/28/2015 11:14:01a 192 7 11 34 58 68.3 56.2 29.92 9.40 1.4 253 0.01 0.00 0.03 0.000
2/28/2015 11:15:01a 214 4 11 34 58 68.3 56.2 29.92 9.40 1.3 236 0.01 0.00 0.03 0.000
2/28/2015 11:16:01a 257 5 11 34 58 68.3 56.1 29.92 9.40 1.2 211 0.01 0.00 0.03 0.000
2/28/2015 11:17:01a 230 4 11 34 58 68.3 56.1 29.92 9.40 1.0 211 0.01 0.00 0.03 0.000
2/28/2015 11:18:01a 215 3 11 34 58 68.3 56.1 29.92 9.40 0.9 160 0.01 0.00 0.03 0.000
2/28/2015 11:19:01a 190 5 5 34 58 68.3 56.1 29.92 9.40 0.9 167 0.01 0.00 0.03 0.000
2/28/2015 11:20:01a 187 7 11 34 58 68.3 56.0 29.92 9.40 1.0 185 0.01 0.00 0.03 0.000
2/28/2015 11:21:07a 178 6 12 34 58 68.3 56.0 29.92 9.40 1.2 213 0.01 0.00 0.03 0.000
2/28/2015 11:22:07a 207 6 12 34 58 68.3 56.0 29.92 9.40 1.3 243 0.01 0.00 0.03 0.000
2/28/2015 11:23:07a 217 10 12 34 58 68.3 55.9 29.92 9.40 1.5 330 0.01 0.00 0.03 0.000
2/28/2015 11:24:08a 182 5 12 34 58 68.3 55.9 29.93 9.40 2.1 330 0.01 0.00 0.03 0.000
2/28/2015 11:25:08a 201 5 12 34 58 68.4 55.9 29.92 9.40 2.1 577 0.01 0.00 0.03 0.000
2/28/2015 11:26:08a 197 6 12 34 58 68.4 56.0 29.92 9.40 2.9 508 0.01 0.00 0.03 0.000
2/28/2015 11:28:08a 249 4 13 34 59 68.4 56.0 29.92 9.40 3.0 629 0.01 0.00 0.03 0.000
2/28/2015 11:29:08a 213 14 14 34 59 68.4 56.1 29.92 9.40 2.8 490 0.01 0.00 0.03 0.000
2/28/2015 11:30:08a 205 11 14 34 59 68.4 56.2 29.93 9.40 2.8 508 0.01 0.00 0.03 0.000
2/28/2015 11:31:11a 225 3 14 34 58 68.4 56.2 29.92 9.40 2.4 508 0.01 0.00 0.03 0.000
2/28/2015 11:32:14a 211 4 14 34 58 68.4 56.2 29.92 9.40 2.3 385 0.01 0.00 0.03 0.000
2/28/2015 11:33:14a 192 9 14 34 58 68.4 56.2 29.92 9.40 2.2 376 0.01 0.00 0.03 0.000
2/28/2015 11:34:14a 178 9 10 34 58 68.4 56.2 29.92 9.40 2.2 387 0.01 0.00 0.03 0.000
2/28/2015 11:35:14a 166 8 10 34 59 68.4 56.2 29.92 9.40 2.8 387 0.01 0.00 0.03 0.000
2/28/2015 11:36:18a 169 3 10 34 59 68.4 56.3 29.92 9.40 3.0 638 0.01 0.00 0.03 0.000
2/28/2015 11:37:18a 252 8 13 34 59 68.4 56.4 29.92 9.40 3.0 677 0.01 0.00 0.03 0.000
2/28/2015 11:38:18a 230 3 13 34 59 68.6 56.4 29.92 9.40 3.4 712 0.01 0.00 0.03 0.000
2/28/2015 11:39:18a 199 8 13 34 59 68.6 56.5 29.92 9.40 3.5 694 0.01 0.00 0.03 0.000
2/28/2015 11:40:18a 197 8 13 34 59 68.6 56.5 29.92 9.40 3.5 686 0.01 0.00 0.03 0.000
2/28/2015 11:41:18a 193 12 13 34 58 68.6 56.6 29.92 9.40 3.7 719 0.01 0.00 0.03 0.000
2/28/2015 11:42:18a 182 9 13 34 58 68.6 56.6 29.92 9.40 3.6 687 0.01 0.00 0.03 0.000
2/28/2015 11:43:21a 183 3 13 34 56 68.6 56.6 29.92 9.40 3.6 680 0.01 0.00 0.03 0.000
2/28/2015 11:44:21a 164 10 13 34 56 68.6 56.6 29.92 9.40 3.4 670 0.01 0.00 0.03 0.000
2/28/2015 11:45:21a 157 6 13 34 56 68.6 56.6 29.91 9.40 3.1 510 0.01 0.00 0.03 0.000
2/28/2015 11:46:21a 169 8 13 34 56 68.6 56.7 29.91 9.40 2.9 480 0.01 0.00 0.03 0.000
2/28/2015 11:47:21a 241 7 13 34 55 68.6 56.7 29.91 9.40 2.7 480 0.01 0.00 0.03 0.000
2/28/2015 11:48:24a 198 6 13 34 55 68.6 56.9 29.92 9.40 2.7 455 0.01 0.00 0.03 0.000
2/28/2015 11:49:24a 190 9 13 34 55 68.6 56.9 29.91 9.40 2.6 448 0.01 0.00 0.03 0.000
2/28/2015 11:50:25a 220 5 13 34 55 68.8 56.9 29.91 9.40 2.6 439 0.01 0.00 0.03 0.000
2/28/2015 11:51:25a 217 5 13 34 55 68.8 56.9 29.91 9.40 2.5 411 0.01 0.00 0.03 0.000
2/28/2015 11:52:25a 229 5 13 34 54 68.8 56.9 29.91 9.40 2.3 399 0.01 0.00 0.03 0.000
2/28/2015 11:53:25a 192 8 13 34 54 68.8 57.0 29.91 9.40 2.2 394 0.01 0.00 0.03 0.000
2/28/2015 11:54:28a 228 6 13 34 54 68.8 57.0 29.91 9.40 2.2 411 0.01 0.00 0.03 0.000
2/28/2015 11:55:28a 244 4 13 34 54 68.8 57.0 29.91 9.40 2.3 482 0.01 0.00 0.03 0.000
2/28/2015 11:56:28a 185 5 13 34 54 68.8 57.0 29.91 9.40 2.4 538 0.01 0.00 0.03 0.000
2/28/2015 11:57:28a 217 6 13 34 54 68.8 57.1 29.91 9.40 3.0 603 0.01 0.00 0.03 0.000
2/28/2015 11:58:32a 219 3 13 34 54 68.8 57.1 29.91 9.40 3.0 624 0.01 0.00 0.03 0.000
2/28/2015 11:59:32a 206 10 13 34 54 68.8 57.2 29.91 9.40 3.0 598 0.01 0.00 0.03 0.000
2/28/2015 12:00:32p 186 10 13 34 53 68.8 57.2 29.91 9.40 3.1 598 0.01 0.00 0.03 0.000
2/28/2015 12:01:35p 211 6 13 34 53 68.9 57.2 29.91 9.40 3.1 594 0.01 0.00 0.03 0.000
2/28/2015 12:02:35p 205 4 13 34 53 68.9 57.2 29.91 9.40 3.1 591 0.01 0.00 0.03 0.000
2/28/2015 12:03:35p 211 5 13 34 53 68.9 57.2 29.91 9.40 3.1 584 0.01 0.00 0.03 0.000
2/28/2015 12:04:35p 246 6 11 34 52 68.9 57.2 29.91 9.40 2.9 557 0.01 0.00 0.03 0.000
2/28/2015 12:05:36p 167 3 11 34 53 68.9 57.2 29.91 9.40 2.8 501 0.01 0.00 0.03 0.000
2/28/2015 12:06:36p 182 5 11 34 53 68.9 57.3 29.91 9.40 2.8 496 0.01 0.00 0.03 0.000
2/28/2015 12:07:36p 172 6 11 34 53 68.9 57.3 29.91 9.40 2.7 462 0.01 0.00 0.03 0.000
2/28/2015 12:08:36p 205 4 11 34 53 68.9 57.4 29.91 9.40 2.5 434 0.01 0.00 0.03 0.000
2/28/2015 12:09:36p 282 4 11 34 53 68.9 57.4 29.91 9.40 2.3 401 0.01 0.00 0.03 0.000
2/28/2015 12:10:36p 190 3 11 34 53 68.9 57.5 29.91 9.40 2.1 366 0.01 0.00 0.03 0.000
2/28/2015 12:11:36p 175 9 11 34 52 69.1 57.4 29.91 9.40 1.9 334 0.01 0.00 0.03 0.000
2/28/2015 12:12:36p 217 3 11 34 52 69.1 57.4 29.91 9.40 1.8 316 0.01 0.00 0.03 0.000
2/28/2015 12:13:36p 213 7 13 34 52 69.1 57.4 29.91 9.40 1.8 334 0.01 0.00 0.03 0.000
2/28/2015 12:14:36p 211 2 13 34 52 69.1 57.4 29.91 9.40 1.8 320 0.01 0.00 0.03 0.000
2/28/2015 12:15:36p 198 12 13 34 52 69.1 57.4 29.91 9.40 1.8 318 0.01 0.00 0.03 0.000
2/28/2015 12:16:39p 193 5 13 34 52 69.1 57.4 29.91 9.40 1.8 318 0.01 0.00 0.03 0.000
2/28/2015 12:17:39p 203 10 13 34 52 69.1 57.4 29.91 9.40 1.8 309 0.01 0.00 0.03 0.000
2/28/2015 12:18:42p 199 7 7 34 52 69.1 57.3 29.91 9.40 1.8 308 0.01 0.00 0.03 0.000
2/28/2015 12:19:43p 205 10 10 34 53 69.1 57.3 29.91 9.40 1.8 297 0.01 0.00 0.03 0.000
2/28/2015 12:20:43p 203 5 11 34 53 69.3 57.2 29.91 9.40 1.7 281 0.01 0.00 0.03 0.000
2/28/2015 12:21:43p 197 4 11 34 53 69.3 57.2 29.91 9.40 1.5 255 0.01 0.00 0.03 0.000
2/28/2015 12:22:43p 215 4 11 34 54 69.3 57.2 29.91 9.40 1.4 230 0.01 0.00 0.03 0.000
2/28/2015 12:23:43p 217 5 11 34 54 69.3 57.2 29.91 9.40 1.3 204 0.01 0.00 0.03 0.000
2/28/2015 12:24:43p 211 10 11 34 54 69.3 57.2 29.91 9.40 1.1 162 0.01 0.00 0.03 0.000
2/28/2015 12:25:43p 213 13 13 34 54 69.3 57.1 29.91 9.40 0.9 142 0.01 0.00 0.03 0.000
2/28/2015 12:26:46p 212 10 17 34 54 69.3 57.1 29.91 9.40 0.8 142 0.01 0.00 0.03 0.000
2/28/2015 12:27:46p 195 13 17 34 54 69.3 57.0 29.91 9.40 0.7 113 0.01 0.00 0.03 0.000
2/28/2015 12:28:46p 178 6 17 34 55 69.3 56.9 29.91 9.40 0.6 105 0.01 0.00 0.03 0.000
2/28/2015 12:29:47p 171 11 17 34 55 69.4 56.9 29.91 9.40 0.6 114 0.01 0.00 0.03 0.000
2/28/2015 12:30:47p 199 6 17 34 55 69.4 56.8 29.91 9.40 0.7 128 0.01 0.00 0.03 0.000
2/28/2015 12:31:47p 220 9 17 34 55 69.4 56.8 29.91 9.40 0.8 146 0.01 0.00 0.03 0.000
2/28/2015 12:32:47p 180 8 17 34 56 69.4 56.7 29.91 9.40 0.9 160 0.01 0.00 0.03 0.000
2/28/2015 12:33:47p 184 9 9 34 56 69.4 56.6 29.91 9.40 1.0 171 0.01 0.00 0.03 0.000
2/28/2015 12:34:53p 218 11 12 34 56 69.4 56.5 29.91 9.40 1.0 193 0.01 0.00 0.03 0.000
2/28/2015 12:35:53p 192 8 13 34 56 69.4 56.5 29.91 9.40 1.1 209 0.01 0.00 0.03 0.000
2/28/2015 12:36:56p 187 9 13 34 56 69.4 56.4 29.91 9.40 1.3 243 0.01 0.00 0.03 0.000
2/28/2015 12:37:56p 204 7 13 34 56 69.4 56.3 29.91 9.40 1.5 292 0.01 0.00 0.03 0.000
2/28/2015 12:38:56p 218 5 13 34 57 69.4 56.3 29.91 9.40 1.7 334 0.01 0.00 0.03 0.000
2/28/2015 12:39:56p 180 5 13 34 57 69.6 56.3 29.91 9.40 2.0 366 0.01 0.00 0.03 0.000
2/28/2015 12:40:59p 192 6 13 34 57 69.6 56.3 29.91 9.40 2.1 411 0.01 0.00 0.03 0.000
2/28/2015 12:42:00p 261 8 13 34 58 69.6 56.4 29.91 9.40 2.2 406 0.01 0.00 0.03 0.000
2/28/2015 12:43:00p 172 7 13 34 58 69.6 56.4 29.91 9.40 2.1 387 0.01 0.00 0.03 0.000
2/28/2015 12:44:00p 201 11 13 34 58 69.6 56.3 29.91 9.40 1.9 387 0.01 0.00 0.03 0.000
2/28/2015 12:45:03p 153 8 13 34 58 69.6 56.3 29.91 9.40 1.8 320 0.01 0.00 0.03 0.000
2/28/2015 12:46:03p 181 10 13 34 57 69.6 56.3 29.91 9.40 1.6 253 0.01 0.00 0.03 0.000
2/28/2015 12:47:06p 213 8 13 34 57 69.6 56.2 29.91 9.40 1.3 227 0.01 0.00 0.03 0.000
2/28/2015 12:48:06p 204 7 13 34 57 69.6 56.2 29.91 9.40 1.2 206 0.01 0.00 0.03 0.000
2/28/2015 12:49:06p 209 4 7 34 56 69.6 56.1 29.91 9.40 1.1 188 0.01 0.00 0.03 0.000
2/28/2015 12:50:06p 211 7 7 34 56 69.6 56.1 29.91 9.40 1.1 174 0.01 0.00 0.03 0.000
2/28/2015 12:51:06p 209 7 8 34 56 69.8 56.1 29.91 9.40 1.1 148 0.01 0.00 0.03 0.000
2/28/2015 12:52:06p 219 4 9 34 56 69.8 56.0 29.91 9.40 0.9 148 0.01 0.00 0.03 0.000
2/28/2015 12:53:06p 203 9 11 34 56 69.8 56.0 29.91 9.40 0.7 123 0.01 0.00 0.03 0.000
2/28/2015 12:54:07p 178 5 11 34 56 69.8 55.9 29.91 9.40 0.7 113 0.01 0.00 0.03 0.000
2/28/2015 12:55:07p 177 6 11 34 56 69.8 55.9 29.90 9.40 0.6 104 0.01 0.00 0.03 0.000
2/28/2015 12:56:07p 202 6 11 34 56 69.8 55.9 29.90 9.40 0.5 93 0.01 0.00 0.03 0.000
2/28/2015 12:57:07p 186 4 11 34 57 69.8 55.9 29.90 9.40 0.5 74 0.01 0.00 0.03 0.000
2/28/2015 12:58:10p 156 12 12 34 57 69.8 55.9 29.90 9.40 0.0 67 0.01 0.00 0.03 0.000
2/28/2015 12:59:10p 246 6 14 34 57 69.8 55.9 29.90 9.40 0.0 62 0.01 0.00 0.03 0.000
2/28/2015 1:00:10p 214 11 14 34 58 69.8 55.8 29.90 9.40 0.0 58 0.01 0.00 0.03 0.000
2/28/2015 1:01:10p 223 10 14 34 58 69.8 55.8 29.90 9.40 0.0 54 0.01 0.00 0.03 0.000
2/28/2015 1:02:10p 200 6 14 34 58 69.8 55.8 29.90 9.40 0.0 53 0.01 0.00 0.03 0.000
2/28/2015 1:03:10p 224 7 14 34 58 69.9 55.7 29.90 9.40 0.0 54 0.01 0.00 0.03 0.000
2/28/2015 1:04:10p 205 3 6 34 59 69.9 55.7 29.90 9.40 0.0 58 0.01 0.00 0.03 0.000
2/28/2015 1:05:16p 183 4 6 34 59 69.9 55.7 29.90 9.40 0.0 62 0.01 0.00 0.03 0.000
2/28/2015 1:06:17p 213 3 6 34 60 69.9 55.7 29.90 9.40 0.0 69 0.01 0.00 0.03 0.000
2/28/2015 1:07:20p 211 6 6 34 60 69.9 55.7 29.91 9.40 0.0 81 0.01 0.00 0.03 0.000
2/28/2015 1:08:20p 209 4 7 34 60 69.9 55.7 29.90 9.40 0.5 90 0.01 0.00 0.03 0.000
2/28/2015 1:09:20p 197 5 7 34 61 69.9 55.7 29.90 9.40 0.6 97 0.01 0.00 0.03 0.000
2/28/2015 1:10:20p 201 6 9 34 61 69.9 55.6 29.90 9.40 0.6 97 0.01 0.00 0.03 0.000
2/28/2015 1:11:20p 226 6 9 34 61 69.9 55.6 29.90 9.40 0.5 90 0.01 0.00 0.03 0.000
2/28/2015 1:12:20p 221 5 9 34 61 69.9 55.6 29.90 9.40 0.5 77 0.01 0.00 0.03 0.000
2/28/2015 1:13:20p 144 5 9 34 61 69.9 55.5 29.90 9.40 0.0 58 0.01 0.00 0.03 0.000
2/28/2015 1:14:20p 182 8 10 34 61 69.9 55.5 29.90 9.40 0.0 51 0.01 0.00 0.03 0.000
2/28/2015 1:15:20p 225 7 11 34 61 69.9 55.4 29.90 9.40 0.0 51 0.01 0.00 0.03 0.000
2/28/2015 1:16:20p 193 5 11 34 61 69.9 55.4 29.90 9.40 0.0 56 0.01 0.00 0.03 0.000
2/28/2015 1:17:23p 186 4 11 34 61 69.9 55.4 29.90 9.40 0.0 65 0.01 0.00 0.03 0.000
2/28/2015 1:18:24p 186 8 11 34 61 69.9 55.3 29.90 9.40 0.0 76 0.01 0.00 0.03 0.000
2/28/2015 1:19:24p 199 6 11 34 61 70.1 55.3 29.90 9.40 0.0 72 0.01 0.00 0.03 0.000
2/28/2015 1:20:27p 223 9 11 34 61 70.1 55.3 29.90 9.40 0.0 63 0.01 0.00 0.03 0.000
2/28/2015 1:21:27p 201 7 11 34 61 70.1 55.3 29.90 9.40 0.0 54 0.01 0.00 0.03 0.000
2/28/2015 1:22:27p 207 6 11 34 62 70.1 55.3 29.90 9.40 0.0 44 0.01 0.00 0.03 0.000
2/28/2015 1:23:27p 228 5 11 34 62 70.1 55.3 29.90 9.40 0.0 39 0.01 0.00 0.03 0.000
2/28/2015 1:24:27p 192 7 11 34 62 70.1 55.2 29.90 9.40 0.0 39 0.01 0.00 0.03 0.000
2/28/2015 1:25:27p 212 7 12 34 62 70.1 55.2 29.90 9.40 0.0 39 0.01 0.00 0.03 0.000
2/28/2015 1:26:30p 199 6 12 34 62 70.1 55.2 29.90 9.40 0.0 40 0.01 0.00 0.03 0.000
2/28/2015 1:27:30p 214 5 12 34 62 70.1 55.2 29.90 9.40 0.0 40 0.01 0.00 0.03 0.000
2/28/2015 1:28:33p 203 5 12 34 62 70.1 55.2 29.90 9.40 0.0 51 0.01 0.00 0.03 0.000
2/28/2015 1:29:34p 207 4 12 34 62 70.1 55.1 29.90 9.40 0.0 65 0.01 0.00 0.03 0.000
2/28/2015 1:30:34p 203 6 12 34 62 70.1 55.1 29.90 9.40 0.0 72 0.01 0.00 0.03 0.000
2/28/2015 1:31:34p 211 11 12 34 62 70.1 55.1 29.90 9.40 0.5 81 0.01 0.00 0.03 0.000
2/28/2015 1:32:34p 260 7 12 34 61 70.1 55.1 29.90 9.40 0.5 88 0.01 0.00 0.03 0.000
2/28/2015 1:33:34p 205 5 12 34 61 70.1 55.1 29.90 9.40 0.5 86 0.01 0.00 0.03 0.000
2/28/2015 1:34:34p 197 5 8 34 61 70.1 55.0 29.90 9.40 0.0 81 0.01 0.00 0.03 0.000
2/28/2015 1:35:34p 173 4 8 34 61 70.1 55.0 29.90 9.40 0.0 77 0.01 0.00 0.03 0.000
2/28/2015 1:36:34p 198 6 8 34 61 70.1 55.0 29.90 9.40 0.0 86 0.01 0.00 0.03 0.000
2/28/2015 1:37:34p 191 10 10 34 60 70.1 55.0 29.90 9.40 0.5 95 0.01 0.00 0.03 0.000
2/28/2015 1:38:34p 253 3 15 34 60 70.1 55.1 29.90 9.40 0.6 118 0.01 0.00 0.03 0.000
2/28/2015 1:39:35p 197 3 15 34 60 70.1 55.1 29.90 9.40 1.5 118 0.01 0.00 0.03 0.000
2/28/2015 1:40:35p 197 5 15 34 60 70.1 55.1 29.90 9.40 1.1 118 0.01 0.00 0.03 0.000
2/28/2015 1:41:35p 262 9 15 34 60 70.1 55.2 29.90 9.40 1.0 251 0.01 0.00 0.03 0.000
2/28/2015 1:42:35p 199 11 15 34 59 70.1 55.3 29.90 9.40 1.4 265 0.01 0.00 0.03 0.000
2/28/2015 1:43:35p 209 13 15 34 59 70.1 55.3 29.90 9.40 1.4 267 0.01 0.00 0.03 0.000
2/28/2015 1:44:38p 184 10 15 34 59 70.1 55.4 29.90 9.40 1.4 257 0.01 0.00 0.03 0.000
2/28/2015 1:45:41p 199 5 15 34 59 70.1 55.4 29.90 9.40 1.3 237 0.01 0.00 0.03 0.000
2/28/2015 1:46:41p 234 3 15 34 58 70.1 55.5 29.89 9.40 1.2 181 0.01 0.00 0.03 0.000
2/28/2015 1:47:44p 170 4 15 34 58 70.3 55.5 29.89 9.40 1.0 155 0.01 0.00 0.03 0.000
2/28/2015 1:48:44p 205 9 9 34 58 70.3 55.6 29.90 9.40 0.7 130 0.01 0.00 0.03 0.000
2/28/2015 1:49:47p 214 9 11 34 58 70.3 55.7 29.90 9.40 0.6 120 0.01 0.00 0.03 0.000
2/28/2015 1:50:47p 192 7 12 34 58 70.3 55.7 29.90 9.40 0.6 116 0.01 0.00 0.03 0.000
2/28/2015 1:51:47p 236 9 13 34 58 70.3 55.8 29.89 9.40 0.7 125 0.01 0.00 0.03 0.000
2/28/2015 1:52:47p 228 10 13 34 57 70.3 55.8 29.89 9.40 0.7 128 0.01 0.00 0.03 0.000
2/28/2015 1:53:47p 228 7 13 34 58 70.3 55.8 29.89 9.40 0.7 128 0.01 0.00 0.03 0.000
2/28/2015 1:54:48p 190 8 13 34 58 70.3 55.8 29.89 9.40 0.6 121 0.01 0.00 0.03 0.000
2/28/2015 1:55:48p 218 10 13 34 58 70.3 55.8 29.89 9.40 0.6 111 0.01 0.00 0.03 0.000
2/28/2015 1:56:48p 184 6 13 34 58 70.3 55.8 29.89 9.40 0.5 100 0.01 0.00 0.03 0.000
2/28/2015 1:57:48p 279 1 13 34 58 70.3 55.8 29.89 9.40 0.5 79 0.01 0.00 0.03 0.000
2/28/2015 1:58:48p 225 3 13 34 58 70.3 55.8 29.89 9.40 0.0 72 0.01 0.00 0.03 0.000
2/28/2015 1:59:51p 224 5 13 34 58 70.3 55.8 29.89 9.40 0.0 69 0.01 0.00 0.03 0.000
2/28/2015 2:00:51p 226 6 13 34 58 70.3 55.8 29.89 9.40 0.0 67 0.01 0.00 0.03 0.000
2/28/2015 2:01:51p 259 3 13 34 58 70.3 55.8 29.89 9.40 0.0 69 0.01 0.00 0.03 0.000
2/28/2015 2:02:51p 255 1 13 34 58 70.3 55.8 29.89 9.40 0.0 77 0.01 0.00 0.03 0.000
2/28/2015 2:03:51p 243 2 4 34 58 70.3 55.8 29.89 9.40 0.0 81 0.01 0.00 0.03 0.000
2/28/2015 2:04:51p 176 6 6 34 58 70.3 55.8 29.89 9.40 0.0 83 0.01 0.00 0.03 0.000
2/28/2015 2:05:51p 188 7 12 34 58 70.3 55.8 29.89 9.40 0.0 81 0.01 0.00 0.03 0.000
2/28/2015 2:06:55p 193 7 12 34 58 70.3 55.8 29.89 9.40 0.0 81 0.01 0.00 0.03 0.000
2/28/2015 2:07:55p 242 5 12 34 58 70.3 55.8 29.89 9.40 0.0 79 0.01 0.00 0.03 0.000
2/28/2015 2:08:55p 213 1 12 34 58 70.3 55.8 29.89 9.40 0.0 74 0.01 0.00 0.03 0.000
2/28/2015 2:09:55p 212 3 12 34 58 70.3 55.7 29.89 9.40 0.0 74 0.01 0.00 0.03 0.000
2/28/2015 2:10:58p 199 10 12 34 58 70.3 55.7 29.89 9.40 0.0 74 0.01 0.00 0.03 0.000
2/28/2015 2:11:58p 224 6 12 34 58 70.3 55.7 29.89 9.40 0.0 90 0.01 0.00 0.03 0.000
2/28/2015 2:12:58p 207 3 12 34 58 70.3 55.8 29.89 9.40 0.5 109 0.01 0.00 0.03 0.000
2/28/2015 2:13:58p 215 5 12 34 58 70.3 55.8 29.89 9.40 0.6 165 0.01 0.00 0.03 0.000
2/28/2015 2:14:58p 203 3 12 34 58 70.3 55.8 29.89 9.40 0.8 202 0.01 0.00 0.03 0.000
2/28/2015 2:15:58p 184 6 12 34 58 70.3 55.8 29.89 9.40 1.0 246 0.01 0.00 0.03 0.000
2/28/2015 2:16:58p 198 9 12 34 58 70.3 55.8 29.89 9.40 1.9 246 0.01 0.00 0.03 0.000
2/28/2015 2:17:58p 176 5 12 34 58 70.3 55.9 29.89 9.40 1.8 478 0.01 0.00 0.03 0.000
2/28/2015 2:19:02p 181 5 11 34 58 70.3 55.9 29.89 9.40 1.3 478 0.01 0.00 0.03 0.000
2/28/2015 2:20:02p 208 7 11 34 58 70.3 56.0 29.89 9.40 1.3 478 0.01 0.00 0.03 0.000
2/28/2015 2:21:02p 236 3 11 34 58 70.3 56.1 29.89 9.40 1.1 248 0.01 0.00 0.03 0.000
2/28/2015 2:22:02p 182 2 11 34 58 70.3 56.1 29.89 9.40 1.0 225 0.01 0.00 0.03 0.000
2/28/2015 2:23:02p 165 11 11 34 58 70.3 56.2 29.89 9.40 0.9 225 0.01 0.00 0.03 0.000
2/28/2015 2:24:02p 191 10 12 34 57 70.3 56.2 29.89 9.40 0.8 199 0.01 0.00 0.03 0.000
2/28/2015 2:25:02p 226 7 12 34 57 70.3 56.2 29.89 9.40 0.8 193 0.01 0.00 0.03 0.000
2/28/2015 2:26:02p 218 6 12 34 57 70.3 56.2 29.89 9.40 0.8 193 0.01 0.00 0.03 0.000
2/28/2015 2:27:02p 216 8 12 35 57 70.3 56.2 29.89 9.40 0.8 197 0.01 0.00 0.03 0.000
2/28/2015 2:28:02p 193 6 12 35 56 70.3 56.2 29.89 9.40 0.8 202 0.01 0.00 0.03 0.000
2/28/2015 2:29:05p 190 9 12 35 56 70.3 56.2 29.89 9.40 0.9 207 0.01 0.00 0.03 0.000
2/28/2015 2:30:05p 215 10 12 35 56 70.3 56.2 29.89 9.40 1.3 255 0.01 0.00 0.03 0.000
2/28/2015 2:31:08p 213 12 12 35 56 70.3 56.2 29.89 9.40 1.0 251 0.01 0.00 0.03 0.000
2/28/2015 2:32:08p 211 12 12 35 56 70.3 56.2 29.89 9.40 1.1 271 0.01 0.00 0.03 0.000
2/28/2015 2:33:09p 211 6 12 35 56 70.3 56.2 29.89 9.40 1.8 271 0.01 0.00 0.03 0.000
2/28/2015 2:34:09p 191 11 13 35 56 70.3 56.3 29.89 9.40 1.3 271 0.01 0.00 0.03 0.000
2/28/2015 2:35:09p 201 8 13 35 56 70.3 56.3 29.89 9.40 2.0 271 0.01 0.00 0.03 0.000
2/28/2015 2:36:09p 199 6 13 35 56 70.3 56.4 29.89 9.40 2.0 860 0.01 0.00 0.03 0.000
2/28/2015 2:37:09p 209 6 13 35 56 70.3 56.6 29.89 9.40 2.1 863 0.01 0.00 0.03 0.000
2/28/2015 2:38:09p 191 9 13 35 55 70.3 56.7 29.89 9.40 1.1 863 0.01 0.00 0.03 0.000
2/28/2015 2:39:09p 193 10 13 35 55 70.3 56.8 29.89 9.40 1.0 271 0.01 0.00 0.03 0.000
2/28/2015 2:40:09p 256 3 13 35 54 70.3 56.9 29.89 9.40 1.0 250 0.01 0.00 0.03 0.000
2/28/2015 2:41:12p 230 4 13 35 54 70.3 57.0 29.89 9.40 0.9 244 0.01 0.00 0.03 0.000
2/28/2015 2:42:12p 183 4 13 35 55 70.3 57.0 29.89 9.40 1.3 279 0.01 0.00 0.03 0.000
2/28/2015 2:43:15p 267 3 13 34 55 70.3 57.1 29.90 9.40 1.8 279 0.01 0.00 0.03 0.000
2/28/2015 2:44:15p 199 1 13 34 55 70.3 57.2 29.89 9.40 1.3 279 0.01 0.00 0.03 0.000
2/28/2015 2:45:15p 205 3 13 34 55 70.3 57.3 29.89 9.40 1.6 508 0.01 0.00 0.03 0.000
2/28/2015 2:46:16p 191 3 13 35 55 70.3 57.4 29.89 9.40 1.3 469 0.01 0.00 0.03 0.000
2/28/2015 2:47:16p 220 8 13 35 55 70.3 57.5 29.89 9.40 1.9 698 0.01 0.00 0.03 0.000
2/28/2015 2:48:16p 184 7 13 35 54 70.3 57.6 29.89 9.40 1.9 698 0.01 0.00 0.03 0.000
2/28/2015 2:49:16p 201 10 13 35 54 70.3 57.6 29.89 9.40 1.4 821 0.01 0.00 0.03 0.000
2/28/2015 2:50:19p 200 3 13 34 54 70.3 57.7 29.89 9.40 1.3 821 0.01 0.00 0.03 0.000
2/28/2015 2:51:19p 240 5 13 34 54 70.3 57.7 29.89 9.40 1.2 350 0.01 0.00 0.03 0.000
2/28/2015 2:52:22p 222 3 13 34 54 70.3 57.8 29.89 9.40 1.0 234 0.01 0.00 0.03 0.000
2/28/2015 2:53:22p 230 8 13 34 54 70.3 57.8 29.89 9.40 0.9 234 0.01 0.00 0.03 0.000
2/28/2015 2:54:25p 215 3 13 34 53 70.3 57.8 29.89 9.40 0.9 234 0.01 0.00 0.03 0.000
2/28/2015 2:55:25p 228 5 13 34 53 70.3 57.8 29.89 9.40 0.8 234 0.01 0.00 0.03 0.000
2/28/2015 2:56:26p 209 5 13 34 53 70.3 57.8 29.89 9.40 0.9 241 0.01 0.00 0.03 0.000
2/28/2015 2:57:26p 186 3 13 34 53 70.3 57.8 29.89 9.40 0.7 160 0.01 0.00 0.03 0.000
2/28/2015 2:58:26p 186 2 13 34 53 70.3 57.8 29.89 9.40 0.7 142 0.01 0.00 0.03 0.000
2/28/2015 2:59:26p 190 2 13 34 53 70.3 57.8 29.89 9.40 0.6 137 0.01 0.00 0.03 0.000
2/28/2015 3:00:26p 207 4 13 34 53 70.3 57.7 29.89 9.40 0.6 134 0.01 0.00 0.03 0.000
2/28/2015 3:01:26p 195 4 13 34 53 70.3 57.7 29.89 9.40 0.6 132 0.01 0.00 0.03 0.000
2/28/2015 3:02:26p 207 2 13 34 53 70.3 57.7 29.89 9.40 0.5 130 0.01 0.00 0.03 0.000
2/28/2015 3:03:26p 202 5 13 34 53 70.3 57.6 29.89 9.40 0.5 130 0.01 0.00 0.03 0.000
2/28/2015 3:04:26p 226 4 7 34 53 70.3 57.6 29.89 9.40 0.5 121 0.01 0.00 0.03 0.000
2/28/2015 3:05:26p 224 3 8 34 53 70.3 57.6 29.90 9.40 0.5 121 0.01 0.00 0.03 0.000
2/28/2015 3:06:26p 197 6 8 34 53 70.3 57.5 29.90 9.40 0.5 127 0.01 0.00 0.03 0.000
2/28/2015 3:07:26p 192 6 8 34 53 70.3 57.4 29.90 9.40 0.5 135 0.01 0.00 0.03 0.000
2/28/2015 3:08:26p 161 4 9 34 53 70.3 57.4 29.89 9.40 0.5 144 0.01 0.00 0.03 0.000
2/28/2015 3:09:30p 238 6 9 34 53 70.3 57.3 29.90 9.40 0.6 156 0.01 0.00 0.03 0.000
2/28/2015 3:10:33p 194 3 9 34 52 70.3 57.2 29.89 9.40 0.7 206 0.01 0.00 0.03 0.000
2/28/2015 3:11:33p 211 5 9 34 52 70.3 57.2 29.90 9.40 0.7 206 0.01 0.00 0.03 0.000
2/28/2015 3:12:36p 271 2 9 34 52 70.3 57.1 29.89 9.40 0.9 206 0.01 0.00 0.03 0.000
2/28/2015 3:13:36p 257 0 9 34 53 70.3 57.1 29.89 9.40 0.6 188 0.01 0.00 0.03 0.000
2/28/2015 3:14:36p 211 2 9 34 53 70.3 57.1 29.89 9.40 0.6 172 0.01 0.00 0.03 0.000
2/28/2015 3:15:36p 212 0 9 34 53 70.3 57.1 29.89 9.40 0.6 172 0.01 0.00 0.03 0.000
2/28/2015 3:16:36p 209 1 9 34 53 70.3 57.1 29.89 9.40 0.6 172 0.01 0.00 0.03 0.000
2/28/2015 3:17:36p 202 10 10 34 53 70.3 57.1 29.89 9.40 0.6 492 0.01 0.00 0.03 0.000
2/28/2015 3:18:36p 202 9 10 34 53 70.3 57.1 29.89 9.40 0.6 492 0.01 0.00 0.03 0.000
2/28/2015 3:19:36p 191 8 11 34 53 70.3 57.1 29.89 9.40 0.5 158 0.01 0.00 0.03 0.000
2/28/2015 3:20:42p 242 6 12 34 52 70.3 57.1 29.89 9.40 0.5 139 0.01 0.00 0.03 0.000
2/28/2015 3:21:42p 209 4 12 34 52 70.3 57.1 29.89 9.40 0.5 132 0.01 0.00 0.03 0.000
2/28/2015 3:22:43p 204 2 12 34 52 70.3 57.1 29.89 9.40 0.5 132 0.01 0.00 0.03 0.000
2/28/2015 3:23:43p 280 3 12 34 52 70.3 57.1 29.90 9.40 0.5 139 0.01 0.00 0.03 0.000
2/28/2015 3:24:43p 265 4 12 34 52 70.3 57.1 29.90 9.40 0.5 146 0.01 0.00 0.03 0.000
2/28/2015 3:25:43p 312 1 12 34 52 70.3 57.1 29.90 9.40 0.8 146 0.01 0.00 0.03 0.000
2/28/2015 3:26:46p 234 2 12 34 53 70.3 57.1 29.90 9.40 0.5 146 0.01 0.00 0.03 0.000
2/28/2015 3:27:46p 209 4 12 34 53 70.3 57.1 29.90 9.40 0.5 151 0.01 0.00 0.03 0.000
2/28/2015 3:28:46p 226 4 12 34 53 70.3 57.2 29.90 9.40 0.8 183 0.01 0.00 0.03 0.000
2/28/2015 3:29:46p 201 2 12 34 53 70.3 57.1 29.90 9.40 0.8 172 0.01 0.00 0.03 0.000
2/28/2015 3:30:49p 239 3 12 34 53 70.3 57.2 29.89 9.40 0.8 172 0.01 0.00 0.03 0.000
2/28/2015 3:31:49p 229 2 12 34 53 70.3 57.2 29.89 9.40 0.9 575 0.01 0.00 0.03 0.000
2/28/2015 3:32:52p 209 5 12 34 53 70.3 57.2 29.90 9.40 0.6 575 0.01 0.00 0.03 0.000
2/28/2015 3:33:53p 244 4 11 34 53 70.3 57.2 29.90 9.40 0.6 213 0.01 0.00 0.03 0.000
2/28/2015 3:34:53p 219 4 11 34 53 70.5 57.2 29.90 9.40 0.7 283 0.01 0.00 0.03 0.000
2/28/2015 3:35:53p 212 4 11 34 52 70.5 57.2 29.90 9.40 0.7 283 0.01 0.00 0.03 0.000
2/28/2015 3:36:53p 177 5 11 34 52 70.5 57.3 29.89 9.40 1.0 283 0.01 0.00 0.03 0.000
2/28/2015 3:37:53p 205 1 11 34 52 70.5 57.3 29.90 9.40 0.8 283 0.01 0.00 0.03 0.000
2/28/2015 3:38:53p 195 7 11 34 52 70.5 57.3 29.89 9.40 0.9 283 0.01 0.00 0.03 0.000
2/28/2015 3:39:53p 217 4 11 34 52 70.5 57.4 29.89 9.40 0.9 283 0.01 0.00 0.03 0.000
2/28/2015 3:40:53p 254 6 11 34 52 70.5 57.4 29.89 9.40 0.9 262 0.01 0.00 0.03 0.000
2/28/2015 3:41:53p 183 7 11 34 52 70.5 57.5 29.90 9.40 0.7 262 0.01 0.00 0.03 0.000
2/28/2015 3:42:54p 199 10 12 34 52 70.5 57.5 29.90 9.40 0.7 253 0.01 0.00 0.03 0.000
2/28/2015 3:43:54p 180 5 12 34 51 70.5 57.5 29.90 9.40 0.7 192 0.01 0.00 0.03 0.000
2/28/2015 3:44:54p 199 7 12 34 51 70.5 57.5 29.90 9.40 0.7 183 0.01 0.00 0.03 0.000
2/28/2015 3:45:57p 211 4 12 34 50 70.5 57.5 29.90 9.40 0.7 181 0.01 0.00 0.03 0.000
2/28/2015 3:46:57p 153 3 12 34 50 70.5 57.4 29.90 9.40 0.7 179 0.01 0.00 0.03 0.000
2/28/2015 3:47:57p 295 2 12 34 50 70.5 57.4 29.90 9.40 0.6 278 0.01 0.00 0.03 0.000
2/28/2015 3:48:57p 194 5 6 34 50 70.5 57.4 29.90 9.40 0.6 181 0.01 0.00 0.03 0.000
2/28/2015 3:49:57p 198 5 7 34 51 70.5 57.4 29.90 9.40 0.6 171 0.01 0.00 0.03 0.000
2/28/2015 3:50:57p 218 6 10 34 51 70.5 57.4 29.90 9.40 0.6 165 0.01 0.00 0.03 0.000
2/28/2015 3:51:57p 201 6 12 34 51 70.5 57.4 29.90 9.40 0.5 158 0.01 0.00 0.03 0.000
2/28/2015 3:53:00p 216 7 12 34 51 70.5 57.4 29.90 9.40 0.5 146 0.01 0.00 0.03 0.000
2/28/2015 3:54:00p 222 3 12 34 51 70.5 57.3 29.90 9.40 0.5 137 0.01 0.00 0.03 0.000
2/28/2015 3:55:00p 181 5 12 34 51 70.5 57.3 29.90 9.40 0.5 130 0.01 0.00 0.03 0.000
2/28/2015 3:56:03p 184 4 12 34 51 70.5 57.2 29.90 9.40 0.0 123 0.01 0.00 0.03 0.000
2/28/2015 3:57:04p 188 1 12 34 51 70.5 57.2 29.90 9.40 0.0 118 0.01 0.00 0.03 0.000
2/28/2015 3:58:04p 188 0 12 34 51 70.5 57.2 29.90 9.40 0.0 111 0.01 0.00 0.03 0.000
2/28/2015 3:59:04p 195 4 12 34 51 70.5 57.1 29.90 9.40 0.0 98 0.01 0.00 0.03 0.000
2/28/2015 4:00:04p 194 0 12 34 51 70.5 57.1 29.90 9.40 0.0 93 0.01 0.00 0.03 0.000
2/28/2015 4:01:04p 194 1 12 34 51 70.5 57.1 29.90 9.40 0.0 95 0.01 0.00 0.03 0.000
2/28/2015 4:02:04p 194 3 12 34 52 70.5 57.1 29.90 9.40 0.0 153 0.01 0.00 0.03 0.000
2/28/2015 4:03:04p 195 4 12 34 51 70.5 57.1 29.90 9.40 0.0 109 0.01 0.00 0.03 0.000
2/28/2015 4:04:04p 209 5 7 34 52 70.5 57.1 29.90 9.40 0.0 109 0.01 0.00 0.03 0.000
2/28/2015 4:05:04p 188 5 7 35 52 70.5 57.0 29.90 9.40 0.0 413 0.01 0.00 0.03 0.000
2/28/2015 4:06:04p 234 4 7 34 51 70.5 57.0 29.90 9.40 0.0 413 0.01 0.00 0.03 0.000
2/28/2015 4:07:04p 233 4 9 35 52 70.5 57.1 29.90 9.40 0.5 441 0.01 0.00 0.03 0.000
2/28/2015 4:08:07p 236 8 9 34 52 70.5 57.1 29.90 9.40 0.5 457 0.01 0.00 0.03 0.000
2/28/2015 4:09:08p 224 4 9 35 52 70.5 57.1 29.90 9.40 0.5 457 0.01 0.00 0.03 0.000
2/28/2015 4:10:08p 203 13 14 34 52 70.5 57.2 29.90 9.40 0.6 469 0.01 0.00 0.03 0.000
2/28/2015 4:11:08p 211 2 14 34 52 70.5 57.2 29.90 9.40 0.6 464 0.01 0.00 0.03 0.000
2/28/2015 4:13:08p 199 5 14 34 52 70.5 57.4 29.90 9.40 0.6 457 0.01 0.00 0.03 0.000
2/28/2015 4:14:11p 241 4 14 34 52 70.5 57.4 29.90 9.40 0.6 459 0.01 0.00 0.03 0.000
2/28/2015 4:15:11p 203 8 14 34 52 70.5 57.5 29.89 9.40 0.6 454 0.01 0.00 0.03 0.000
2/28/2015 4:16:14p 212 6 14 34 52 70.5 57.6 29.89 9.40 0.6 436 0.01 0.00 0.03 0.000
2/28/2015 4:17:15p 202 11 14 34 51 70.6 57.6 29.90 9.40 0.6 422 0.01 0.00 0.03 0.000
2/28/2015 4:18:18p 207 11 15 34 51 70.6 57.6 29.90 9.40 0.6 403 0.01 0.00 0.03 0.000
2/28/2015 4:19:18p 202 12 12 34 50 70.6 57.6 29.90 9.40 0.6 381 0.01 0.00 0.03 0.000
2/28/2015 4:20:18p 205 7 12 34 50 70.6 57.6 29.90 9.40 0.5 362 0.01 0.00 0.03 0.000
2/28/2015 4:21:18p 228 2 12 34 50 70.6 57.6 29.90 9.40 0.5 348 0.01 0.00 0.03 0.000
2/28/2015 4:22:18p 211 7 12 34 50 70.6 57.6 29.90 9.40 0.5 323 0.01 0.00 0.03 0.000
2/28/2015 4:23:18p 217 4 12 34 50 70.6 57.6 29.90 9.40 0.5 316 0.01 0.00 0.03 0.000
2/28/2015 4:24:18p 187 10 12 34 50 70.6 57.6 29.90 9.40 0.5 311 0.01 0.00 0.03 0.000
2/28/2015 4:25:18p 205 5 14 34 50 70.6 57.5 29.90 9.40 0.5 304 0.01 0.00 0.03 0.000
2/28/2015 4:26:21p 257 4 14 34 50 70.6 57.5 29.90 9.40 0.5 295 0.01 0.00 0.03 0.000
2/28/2015 4:27:21p 211 7 14 34 50 70.6 57.5 29.90 9.40 0.5 295 0.01 0.00 0.03 0.000
2/28/2015 4:28:22p 180 7 14 34 50 70.6 57.4 29.90 9.40 0.5 294 0.01 0.00 0.03 0.000

© All rights reserved. Unauthorized duplication or distribution is prohibited

Never base important decisions on this or any weather information obtained from the Internet

California State University, San Bernardino
5500 University Parkway, San Bernardino, CA. 92407
Phone: (909) 537-7558, Email: Weather Master
Last Updated: